Wetterdaten: Mittwoch, 30.08.2017
Datum Zeit Temp. Aussen Temp. o. S. +5cm Feuchte Auss BlattFeu 1 Luftdruck Regen Sonnenschein Regendauer Solar Windben Empfang
30.08.2017 00:00 22,8 C 21,7 C 20,0 C 77 % 0 lf 1009,4 hPa 0,0 l/m 0 min 0 min 0 W/m 8,4 km/h (2 Bft) 100,00 %
30.08.2017 00:02 22,7 C 21,7 C 19,4 C 77 % 0 lf 1009,4 hPa 0,0 l/m 0 min 0 min 0 W/m 8,4 km/h (2 Bft) 97,50 %
30.08.2017 00:04 22,7 C 21,7 C 19,4 C 77 % 0 lf 1009,4 hPa 0,0 l/m 0 min 0 min 0 W/m 8,4 km/h (2 Bft) 95,74 %
30.08.2017 00:08 22,6 C 21,7 C 19,4 C 77 % 0 lf 1009,4 hPa 0,0 l/m 0 min 0 min 0 W/m 8,4 km/h (2 Bft) 94,51 %
30.08.2017 00:10 22,6 C 21,7 C 19,4 C 77 % 0 lf 1009,5 hPa 0,0 l/m 0 min 0 min 0 W/m 10,5 km/h (2 Bft) 100,00 %
30.08.2017 00:12 22,6 C 21,7 C 19,4 C 77 % 0 lf 1009,4 hPa 0,0 l/m 0 min 0 min 0 W/m 8,4 km/h (2 Bft) 97,87 %
30.08.2017 00:14 22,5 C 21,7 C 19,4 C 78 % 0 lf 1009,4 hPa 0,0 l/m 0 min 0 min 5 W/m 12,6 km/h (3 Bft) 95,74 %
30.08.2017 00:16 22,5 C 21,7 C 19,4 C 78 % 0 lf 1009,4 hPa 0,0 l/m 0 min 0 min 5 W/m 8,4 km/h (2 Bft) 100,00 %
30.08.2017 00:18 22,4 C 21,7 C 19,4 C 78 % 0 lf 1009,4 hPa 0,0 l/m 0 min 0 min 5 W/m 12,6 km/h (3 Bft) 100,00 %
30.08.2017 00:20 22,4 C 21,1 C 19,4 C 78 % 0 lf 1009,4 hPa 0,0 l/m 0 min 0 min 5 W/m 6,3 km/h (2 Bft) 92,31 %
30.08.2017 00:22 22,4 C 21,1 C 19,4 C 78 % 0 lf 1009,4 hPa 0,0 l/m 0 min 0 min 0 W/m 8,4 km/h (2 Bft) 97,87 %
30.08.2017 00:24 22,3 C 21,1 C 19,4 C 78 % 0 lf 1009,5 hPa 0,0 l/m 0 min 0 min 1 W/m 6,3 km/h (2 Bft) 97,56 %
30.08.2017 00:26 22,3 C 21,1 C 19,4 C 78 % 0 lf 1009,4 hPa 0,0 l/m 0 min 0 min 4 W/m 8,4 km/h (2 Bft) 93,62 %
30.08.2017 00:28 22,3 C 21,1 C 18,9 C 78 % 0 lf 1009,4 hPa 0,0 l/m 0 min 0 min 0 W/m 8,4 km/h (2 Bft) 98,08 %
30.08.2017 00:30 22,2 C 21,1 C 18,9 C 78 % 0 lf 1009,4 hPa 0,0 l/m 0 min 0 min 4 W/m 8,4 km/h (2 Bft) 95,12 %
30.08.2017 00:32 22,2 C 21,1 C 18,9 C 78 % 0 lf 1009,4 hPa 0,0 l/m 0 min 0 min 5 W/m 8,4 km/h (2 Bft) 97,87 %
30.08.2017 00:34 22,2 C 21,1 C 19,4 C 79 % 0 lf 1009,4 hPa 0,0 l/m 0 min 0 min 5 W/m 8,4 km/h (2 Bft) 94,34 %
30.08.2017 00:36 22,1 C 21,1 C 19,4 C 78 % 0 lf 1009,4 hPa 0,0 l/m 0 min 0 min 5 W/m 10,5 km/h (2 Bft) 97,87 %
30.08.2017 00:38 22,1 C 21,1 C 19,4 C 79 % 0 lf 1009,4 hPa 0,0 l/m 0 min 0 min 5 W/m 10,5 km/h (2 Bft) 95,12 %
30.08.2017 00:40 22,1 C 21,1 C 19,4 C 79 % 0 lf 1009,4 hPa 0,0 l/m 0 min 0 min 0 W/m 8,4 km/h (2 Bft) 95,74 %
30.08.2017 00:42 22,0 C 21,1 C 19,4 C 79 % 0 lf 1009,4 hPa 0,0 l/m 0 min 0 min 0 W/m 8,4 km/h (2 Bft) 92,31 %
30.08.2017 00:44 22,0 C 21,1 C 19,4 C 79 % 0 lf 1009,4 hPa 0,0 l/m 0 min 0 min 0 W/m 8,4 km/h (2 Bft) 93,62 %
30.08.2017 00:46 21,9 C 21,1 C 19,4 C 79 % 0 lf 1009,4 hPa 0,0 l/m 0 min 0 min 0 W/m 8,4 km/h (2 Bft) 89,36 %
30.08.2017 00:48 21,9 C 21,1 C 19,4 C 79 % 0 lf 1009,3 hPa 0,0 l/m 0 min 0 min 0 W/m 6,3 km/h (2 Bft) 93,62 %
30.08.2017 00:50 21,9 C 21,1 C 18,9 C 79 % 0 lf 1009,3 hPa 0,0 l/m 0 min 0 min 0 W/m 8,4 km/h (2 Bft) 97,62 %
30.08.2017 00:52 21,8 C 21,1 C 18,9 C 79 % 0 lf 1009,3 hPa 0,0 l/m 0 min 0 min 0 W/m 10,5 km/h (2 Bft) 91,49 %
30.08.2017 00:54 21,8 C 21,1 C 18,9 C 79 % 0 lf 1009,3 hPa 0,0 l/m 0 min 0 min 0 W/m 12,6 km/h (3 Bft) 93,48 %
30.08.2017 00:56 21,8 C 21,1 C 18,9 C 79 % 0 lf 1009,3 hPa 0,0 l/m 0 min 0 min 5 W/m 10,5 km/h (2 Bft) 96,00 %
30.08.2017 00:58 21,7 C 21,1 C 18,9 C 79 % 0 lf 1009,2 hPa 0,0 l/m 0 min 0 min 0 W/m 12,6 km/h (3 Bft) 91,49 %
30.08.2017 01:00 21,7 C 21,1 C 18,9 C 79 % 0 lf 1009,2 hPa 0,0 l/m 0 min 0 min 0 W/m 8,4 km/h (2 Bft) 93,88 %
30.08.2017 01:02 21,7 C 21,1 C 18,9 C 79 % 0 lf 1009,2 hPa 0,0 l/m 0 min 0 min 0 W/m 10,5 km/h (2 Bft) 95,65 %
30.08.2017 01:04 21,7 C 21,1 C 18,9 C 79 % 0 lf 1009,2 hPa 0,0 l/m 0 min 0 min 0 W/m 10,5 km/h (2 Bft) 95,74 %
30.08.2017 01:06 21,6 C 21,1 C 18,9 C 79 % 0 lf 1009,2 hPa 0,0 l/m 0 min 0 min 0 W/m 12,6 km/h (3 Bft) 92,86 %
30.08.2017 01:08 21,6 C 21,1 C 18,9 C 79 % 0 lf 1009,1 hPa 0,0 l/m 0 min 0 min 0 W/m 12,6 km/h (3 Bft) 94,00 %
30.08.2017 01:10 21,6 C 21,1 C 18,9 C 79 % 0 lf 1009,2 hPa 0,0 l/m 0 min 0 min 0 W/m 12,6 km/h (3 Bft) 93,62 %
30.08.2017 01:12 21,6 C 21,1 C 18,9 C 79 % 0 lf 1009,1 hPa 0,0 l/m 0 min 0 min 0 W/m 10,5 km/h (2 Bft) 93,62 %
30.08.2017 01:14 21,6 C 20,6 C 18,9 C 79 % 0 lf 1009,2 hPa 0,0 l/m 0 min 0 min 0 W/m 14,6 km/h (3 Bft) 93,62 %
30.08.2017 01:16 21,5 C 20,6 C 18,9 C 79 % 0 lf 1009,1 hPa 0,0 l/m 0 min 0 min 0 W/m 12,6 km/h (3 Bft) 91,30 %
30.08.2017 01:18 21,5 C 20,6 C 18,9 C 79 % 0 lf 1009,1 hPa 0,0 l/m 0 min 0 min 0 W/m 12,6 km/h (3 Bft) 93,62 %
30.08.2017 01:20 21,4 C 20,6 C 18,9 C 79 % 0 lf 1009,1 hPa 0,0 l/m 0 min 0 min 0 W/m 10,5 km/h (2 Bft) 95,92 %
30.08.2017 01:22 21,4 C 20,6 C 18,9 C 80 % 0 lf 1009,1 hPa 0,0 l/m 0 min 0 min 0 W/m 12,6 km/h (3 Bft) 93,62 %
30.08.2017 01:24 21,4 C 20,6 C 18,9 C 80 % 0 lf 1009,0 hPa 0,0 l/m 0 min 0 min 0 W/m 12,6 km/h (3 Bft) 95,74 %
30.08.2017 01:26 21,4 C 20,6 C 18,9 C 80 % 0 lf 1009,0 hPa 0,0 l/m 0 min 0 min 0 W/m 10,5 km/h (2 Bft) 93,48 %
30.08.2017 01:28 21,4 C 20,6 C 18,9 C 80 % 0 lf 1009,0 hPa 0,0 l/m 0 min 0 min 0 W/m 12,6 km/h (3 Bft) 93,62 %
30.08.2017 01:30 21,4 C 20,6 C 18,9 C 80 % 0 lf 1009,0 hPa 0,0 l/m 0 min 0 min 0 W/m 10,5 km/h (2 Bft) 95,74 %
30.08.2017 01:32 21,3 C 20,6 C 18,9 C 80 % 0 lf 1009,0 hPa 0,0 l/m 0 min 0 min 0 W/m 8,4 km/h (2 Bft) 89,36 %
30.08.2017 01:34 21,3 C 20,6 C 18,9 C 80 % 0 lf 1009,0 hPa 0,0 l/m 0 min 0 min 0 W/m 12,6 km/h (3 Bft) 91,49 %
30.08.2017 01:36 21,3 C 20,6 C 18,9 C 80 % 0 lf 1009,0 hPa 0,0 l/m 0 min 0 min 0 W/m 8,4 km/h (2 Bft) 93,62 %
30.08.2017 01:38 21,3 C 20,6 C 18,9 C 80 % 0 lf 1009,0 hPa 0,0 l/m 0 min 0 min 0 W/m 10,5 km/h (2 Bft) 91,30 %
30.08.2017 01:40 21,2 C 20,6 C 18,9 C 80 % 0 lf 1009,0 hPa 0,0 l/m 0 min 0 min 0 W/m 12,6 km/h (3 Bft) 97,87 %
30.08.2017 01:42 21,2 C 20,6 C 18,9 C 80 % 0 lf 1009,0 hPa 0,0 l/m 0 min 0 min 0 W/m 12,6 km/h (3 Bft) 97,87 %
30.08.2017 01:44 21,2 C 20,6 C 18,9 C 80 % 0 lf 1008,9 hPa 0,0 l/m 0 min 0 min 0 W/m 8,4 km/h (2 Bft) 95,74 %
30.08.2017 01:46 21,2 C 20,6 C 18,9 C 80 % 0 lf 1008,9 hPa 0,0 l/m 0 min 0 min 0 W/m 10,5 km/h (2 Bft) 97,87 %
30.08.2017 01:48 21,1 C 20,0 C 18,9 C 80 % 0 lf 1008,9 hPa 0,0 l/m 0 min 0 min 0 W/m 8,4 km/h (2 Bft) 97,87 %
30.08.2017 01:50 21,1 C 20,0 C 18,3 C 80 % 0 lf 1008,9 hPa 0,0 l/m 0 min 0 min 0 W/m 8,4 km/h (2 Bft) 95,65 %
30.08.2017 01:52 21,1 C 20,0 C 18,3 C 80 % 0 lf 1008,8 hPa 0,0 l/m 0 min 0 min 0 W/m 10,5 km/h (2 Bft) 95,74 %
30.08.2017 01:54 21,1 C 20,0 C 18,3 C 80 % 0 lf 1008,8 hPa 0,0 l/m 0 min 0 min 0 W/m 8,4 km/h (2 Bft) 97,62 %
30.08.2017 01:56 21,1 C 20,0 C 18,3 C 80 % 0 lf 1008,9 hPa 0,0 l/m 0 min 0 min 0 W/m 8,4 km/h (2 Bft) 97,87 %
30.08.2017 01:58 21,0 C 20,0 C 18,3 C 80 % 0 lf 1008,8 hPa 0,0 l/m 0 min 0 min 0 W/m 10,5 km/h (2 Bft) 96,00 %
30.08.2017 02:00 21,0 C 20,0 C 18,3 C 80 % 0 lf 1008,8 hPa 0,0 l/m 0 min 0 min 0 W/m 8,4 km/h (2 Bft) 95,74 %
30.08.2017 02:02 21,0 C 20,0 C 18,3 C 80 % 0 lf 1008,8 hPa 0,0 l/m 0 min 0 min 0 W/m 8,4 km/h (2 Bft) 95,65 %
30.08.2017 02:04 20,9 C 20,0 C 18,3 C 80 % 0 lf 1008,7 hPa 0,0 l/m 0 min 0 min 0 W/m 10,5 km/h (2 Bft) 97,87 %
30.08.2017 02:06 20,9 C 20,0 C 18,3 C 80 % 0 lf 1008,7 hPa 0,0 l/m 0 min 0 min 0 W/m 10,5 km/h (2 Bft) 97,96 %
30.08.2017 02:08 20,9 C 20,0 C 18,3 C 80 % 0 lf 1008,7 hPa 0,0 l/m 0 min 0 min 0 W/m 12,6 km/h (3 Bft) 95,74 %
30.08.2017 02:10 20,9 C 20,0 C 18,3 C 81 % 0 lf 1008,6 hPa 0,0 l/m 0 min 0 min 0 W/m 10,5 km/h (2 Bft) 95,74 %
30.08.2017 02:12 20,8 C 20,0 C 18,3 C 81 % 0 lf 1008,6 hPa 0,0 l/m 0 min 0 min 0 W/m 10,5 km/h (2 Bft) 100,00 %
30.08.2017 02:14 20,8 C 20,0 C 18,3 C 81 % 0 lf 1008,6 hPa 0,0 l/m 0 min 0 min 0 W/m 8,4 km/h (2 Bft) 100,00 %
30.08.2017 02:16 20,8 C 20,0 C 18,3 C 81 % 0 lf 1008,6 hPa 0,0 l/m 0 min 0 min 0 W/m 6,3 km/h (2 Bft) 97,87 %
30.08.2017 02:18 20,7 C 20,0 C 18,3 C 81 % 0 lf 1008,6 hPa 0,0 l/m 0 min 0 min 0 W/m 6,3 km/h (2 Bft) 97,87 %
30.08.2017 02:20 20,7 C 20,0 C 18,3 C 81 % 0 lf 1008,6 hPa 0,0 l/m 0 min 0 min 0 W/m 6,3 km/h (2 Bft) 97,87 %
30.08.2017 02:22 20,7 C 19,4 C 17,8 C 81 % 0 lf 1008,6 hPa 0,0 l/m 0 min 0 min 0 W/m 10,5 km/h (2 Bft) 92,86 %
30.08.2017 02:24 20,7 C 19,4 C 17,8 C 81 % 0 lf 1008,6 hPa 0,0 l/m 0 min 0 min 0 W/m 8,4 km/h (2 Bft) 97,87 %
30.08.2017 02:26 20,6 C 20,0 C 17,8 C 81 % 0 lf 1008,5 hPa 0,0 l/m 0 min 0 min 0 W/m 8,4 km/h (2 Bft) 97,96 %
30.08.2017 02:28 20,6 C 20,0 C 17,8 C 81 % 0 lf 1008,6 hPa 0,0 l/m 0 min 0 min 0 W/m 12,6 km/h (3 Bft) 97,96 %
30.08.2017 02:30 20,6 C 20,0 C 18,3 C 81 % 0 lf 1008,6 hPa 0,0 l/m 0 min 0 min 0 W/m 12,6 km/h (3 Bft) 97,87 %
30.08.2017 02:32 20,6 C 20,0 C 18,3 C 82 % 0 lf 1008,6 hPa 0,0 l/m 0 min 0 min 0 W/m 8,4 km/h (2 Bft) 97,62 %
30.08.2017 02:34 20,5 C 19,4 C 18,3 C 82 % 0 lf 1008,5 hPa 0,0 l/m 0 min 0 min 0 W/m 8,4 km/h (2 Bft) 98,00 %
30.08.2017 02:36 20,5 C 19,4 C 18,3 C 82 % 0 lf 1008,5 hPa 0,0 l/m 0 min 0 min 0 W/m 12,6 km/h (3 Bft) 97,87 %
30.08.2017 02:38 20,4 C 20,0 C 18,3 C 82 % 0 lf 1008,5 hPa 0,0 l/m 0 min 0 min 0 W/m 12,6 km/h (3 Bft) 97,83 %
30.08.2017 02:40 20,4 C 20,0 C 18,3 C 82 % 0 lf 1008,5 hPa 0,0 l/m 0 min 0 min 0 W/m 10,5 km/h (2 Bft) 97,87 %
30.08.2017 02:42 20,4 C 20,0 C 18,3 C 82 % 0 lf 1008,4 hPa 0,0 l/m 0 min 0 min 0 W/m 12,6 km/h (3 Bft) 95,74 %
30.08.2017 02:44 20,4 C 20,0 C 18,3 C 82 % 0 lf 1008,4 hPa 0,0 l/m 0 min 0 min 0 W/m 12,6 km/h (3 Bft) 97,87 %
30.08.2017 02:46 20,4 C 20,0 C 18,9 C 82 % 0 lf 1008,4 hPa 0,0 l/m 0 min 0 min 0 W/m 8,4 km/h (2 Bft) 97,96 %
30.08.2017 02:48 20,4 C 20,0 C 18,9 C 83 % 0 lf 1008,4 hPa 0,0 l/m 0 min 0 min 0 W/m 10,5 km/h (2 Bft) 95,65 %
30.08.2017 02:50 20,4 C 20,0 C 18,9 C 83 % 0 lf 1008,3 hPa 0,0 l/m 0 min 0 min 0 W/m 12,6 km/h (3 Bft) 95,74 %
30.08.2017 02:52 20,4 C 20,0 C 18,9 C 83 % 0 lf 1008,3 hPa 0,0 l/m 0 min 0 min 0 W/m 14,6 km/h (3 Bft) 95,74 %
30.08.2017 02:54 20,4 C 20,0 C 18,9 C 83 % 0 lf 1008,3 hPa 0,0 l/m 0 min 0 min 0 W/m 12,6 km/h (3 Bft) 97,87 %
30.08.2017 02:56 20,4 C 20,0 C 18,9 C 83 % 0 lf 1008,2 hPa 0,0 l/m 0 min 0 min 0 W/m 14,6 km/h (3 Bft) 97,87 %
30.08.2017 02:58 20,4 C 20,0 C 18,9 C 83 % 0 lf 1008,3 hPa 0,0 l/m 0 min 0 min 0 W/m 12,6 km/h (3 Bft) 95,74 %
30.08.2017 03:00 20,4 C 20,0 C 18,9 C 83 % 0 lf 1008,3 hPa 0,0 l/m 0 min 0 min 0 W/m 10,5 km/h (2 Bft) 97,83 %
30.08.2017 03:02 20,4 C 20,0 C 18,9 C 83 % 0 lf 1008,2 hPa 0,0 l/m 0 min 0 min 0 W/m 10,5 km/h (2 Bft) 97,87 %
30.08.2017 03:04 20,4 C 20,0 C 18,9 C 83 % 0 lf 1008,2 hPa 0,0 l/m 0 min 0 min 0 W/m 12,6 km/h (3 Bft) 97,62 %
30.08.2017 03:06 20,4 C 20,0 C 18,9 C 83 % 0 lf 1008,2 hPa 0,0 l/m 0 min 0 min 0 W/m 10,5 km/h (2 Bft) 100,00 %
30.08.2017 03:08 20,4 C 20,0 C 18,9 C 83 % 0 lf 1008,2 hPa 0,0 l/m 0 min 0 min 0 W/m 10,5 km/h (2 Bft) 100,00 %
30.08.2017 03:10 20,4 C 20,0 C 18,3 C 83 % 0 lf 1008,2 hPa 0,0 l/m 0 min 0 min 0 W/m 12,6 km/h (3 Bft) 100,00 %
30.08.2017 03:12 20,4 C 20,0 C 18,3 C 83 % 0 lf 1008,2 hPa 0,0 l/m 0 min 0 min 0 W/m 10,5 km/h (2 Bft) 100,00 %
30.08.2017 03:14 20,4 C 20,0 C 18,3 C 83 % 0 lf 1008,2 hPa 0,0 l/m 0 min 0 min 0 W/m 14,6 km/h (3 Bft) 100,00 %
30.08.2017 03:16 20,4 C 20,0 C 18,3 C 83 % 0 lf 1008,2 hPa 0,0 l/m 0 min 0 min 0 W/m 14,6 km/h (3 Bft) 97,87 %
30.08.2017 03:18 20,4 C 20,0 C 18,3 C 83 % 0 lf 1008,2 hPa 0,0 l/m 0 min 0 min 0 W/m 18,8 km/h (3 Bft) 95,74 %
30.08.2017 03:20 20,4 C 20,0 C 18,3 C 83 % 0 lf 1008,2 hPa 0,0 l/m 0 min 0 min 0 W/m 10,5 km/h (2 Bft) 97,87 %
30.08.2017 03:22 20,4 C 20,0 C 18,3 C 83 % 0 lf 1008,2 hPa 0,0 l/m 0 min 0 min 0 W/m 12,6 km/h (3 Bft) 97,87 %
30.08.2017 03:24 20,4 C 20,0 C 18,3 C 83 % 0 lf 1008,1 hPa 0,0 l/m 0 min 0 min 0 W/m 16,7 km/h (3 Bft) 97,83 %
30.08.2017 03:26 20,5 C 20,0 C 18,3 C 83 % 0 lf 1008,2 hPa 0,0 l/m 0 min 0 min 0 W/m 10,5 km/h (2 Bft) 95,24 %
30.08.2017 03:28 20,4 C 20,0 C 18,3 C 83 % 0 lf 1008,1 hPa 0,0 l/m 0 min 0 min 0 W/m 10,5 km/h (2 Bft) 98,00 %
30.08.2017 03:30 20,4 C 20,0 C 18,3 C 83 % 0 lf 1008,0 hPa 0,0 l/m 0 min 0 min 0 W/m 12,6 km/h (3 Bft) 93,88 %
30.08.2017 03:32 20,5 C 20,0 C 18,3 C 83 % 0 lf 1008,0 hPa 0,0 l/m 0 min 0 min 0 W/m 14,6 km/h (3 Bft) 93,62 %
30.08.2017 03:34 20,4 C 20,0 C 18,3 C 83 % 0 lf 1007,9 hPa 0,0 l/m 0 min 0 min 0 W/m 12,6 km/h (3 Bft) 97,87 %
30.08.2017 03:36 20,4 C 20,0 C 18,3 C 83 % 0 lf 1007,9 hPa 0,0 l/m 0 min 0 min 0 W/m 12,6 km/h (3 Bft) 95,65 %
30.08.2017 03:38 20,4 C 20,0 C 18,3 C 83 % 0 lf 1008,0 hPa 0,0 l/m 0 min 0 min 0 W/m 10,5 km/h (2 Bft) 97,62 %
30.08.2017 03:40 20,4 C 19,4 C 17,8 C 83 % 0 lf 1008,0 hPa 0,0 l/m 0 min 0 min 0 W/m 10,5 km/h (2 Bft) 97,87 %
30.08.2017 03:42 20,4 C 19,4 C 17,8 C 83 % 0 lf 1007,9 hPa 0,0 l/m 0 min 0 min 0 W/m 4,2 km/h (1 Bft) 95,74 %
30.08.2017 03:44 20,4 C 19,4 C 17,8 C 83 % 0 lf 1008,0 hPa 0,0 l/m 0 min 0 min 0 W/m 8,4 km/h (2 Bft) 97,87 %
30.08.2017 03:46 20,4 C 19,4 C 17,8 C 83 % 0 lf 1007,8 hPa 0,0 l/m 0 min 0 min 0 W/m 8,4 km/h (2 Bft) 98,00 %
30.08.2017 03:48 20,4 C 19,4 C 17,8 C 83 % 0 lf 1007,8 hPa 0,0 l/m 0 min 0 min 0 W/m 10,5 km/h (2 Bft) 97,92 %
30.08.2017 03:50 20,4 C 19,4 C 17,8 C 83 % 0 lf 1007,8 hPa 0,0 l/m 0 min 0 min 0 W/m 8,4 km/h (2 Bft) 97,87 %
30.08.2017 03:52 20,4 C 19,4 C 17,8 C 83 % 0 lf 1007,8 hPa 0,0 l/m 0 min 0 min 0 W/m 6,3 km/h (2 Bft) 97,62 %
30.08.2017 03:54 20,3 C 19,4 C 17,8 C 83 % 0 lf 1007,7 hPa 0,0 l/m 0 min 0 min 0 W/m 6,3 km/h (2 Bft) 100,00 %
30.08.2017 03:56 20,3 C 19,4 C 17,8 C 83 % 0 lf 1007,7 hPa 0,0 l/m 0 min 0 min 0 W/m 8,4 km/h (2 Bft) 96,00 %
30.08.2017 03:58 20,3 C 19,4 C 17,8 C 83 % 0 lf 1007,7 hPa 0,0 l/m 0 min 0 min 0 W/m 6,3 km/h (2 Bft) 97,87 %
30.08.2017 04:00 20,3 C 19,4 C 17,8 C 83 % 0 lf 1007,7 hPa 0,0 l/m 0 min 0 min 0 W/m 6,3 km/h (2 Bft) 95,83 %
30.08.2017 04:05 20,3 C 18,9 C 17,2 C 83 % 0 lf 1007,7 hPa 0,0 l/m 0 min 0 min 0 W/m 8,4 km/h (2 Bft) 94,12 %
30.08.2017 04:06 20,3 C 18,9 C 17,2 C 83 % 0 lf 1007,7 hPa 0,0 l/m 0 min 0 min 0 W/m 4,2 km/h (1 Bft) 95,83 %
30.08.2017 04:08 20,2 C 18,9 C 17,2 C 83 % 0 lf 1007,7 hPa 0,0 l/m 0 min 0 min 0 W/m 6,3 km/h (2 Bft) 100,00 %
30.08.2017 04:10 20,2 C 18,9 C 17,2 C 84 % 0 lf 1007,7 hPa 0,0 l/m 0 min 0 min 0 W/m 6,3 km/h (2 Bft) 100,00 %
30.08.2017 04:12 20,2 C 18,9 C 17,2 C 84 % 0 lf 1007,7 hPa 0,0 l/m 0 min 0 min 0 W/m 6,3 km/h (2 Bft) 91,49 %
30.08.2017 04:14 20,2 C 18,9 C 17,2 C 84 % 0 lf 1007,6 hPa 0,0 l/m 0 min 0 min 0 W/m 8,4 km/h (2 Bft) 97,87 %
30.08.2017 04:16 20,1 C 18,9 C 17,2 C 84 % 0 lf 1007,6 hPa 0,0 l/m 0 min 0 min 0 W/m 8,4 km/h (2 Bft) 91,49 %
30.08.2017 04:18 20,1 C 18,9 C 17,2 C 84 % 0 lf 1007,6 hPa 0,0 l/m 0 min 0 min 0 W/m 6,3 km/h (2 Bft) 93,62 %
30.08.2017 04:20 20,1 C 18,9 C 16,7 C 84 % 0 lf 1007,5 hPa 0,0 l/m 0 min 0 min 0 W/m 6,3 km/h (2 Bft) 95,74 %
30.08.2017 04:22 20,1 C 18,9 C 16,7 C 84 % 0 lf 1007,5 hPa 0,0 l/m 0 min 0 min 0 W/m 6,3 km/h (2 Bft) 95,65 %
30.08.2017 04:24 20,0 C 18,3 C 16,7 C 84 % 0 lf 1007,5 hPa 0,0 l/m 0 min 0 min 4 W/m 6,3 km/h (2 Bft) 89,36 %
30.08.2017 04:26 20,0 C 18,3 C 16,7 C 84 % 0 lf 1007,5 hPa 0,0 l/m 0 min 0 min 0 W/m 4,2 km/h (1 Bft) 91,49 %
30.08.2017 04:28 20,0 C 18,3 C 16,7 C 84 % 0 lf 1007,5 hPa 0,0 l/m 0 min 0 min 0 W/m 6,3 km/h (2 Bft) 91,49 %
30.08.2017 04:30 19,9 C 18,3 C 16,7 C 84 % 0 lf 1007,5 hPa 0,0 l/m 0 min 0 min 0 W/m 4,2 km/h (1 Bft) 93,62 %
30.08.2017 04:32 19,9 C 18,3 C 16,7 C 84 % 0 lf 1007,5 hPa 0,0 l/m 0 min 0 min 0 W/m 4,2 km/h (1 Bft) 93,62 %
30.08.2017 04:34 19,9 C 18,3 C 16,7 C 84 % 1 lf 1007,5 hPa 0,0 l/m 0 min 0 min 5 W/m 6,3 km/h (2 Bft) 93,48 %
30.08.2017 04:36 19,8 C 18,3 C 16,1 C 84 % 1 lf 1007,5 hPa 0,0 l/m 0 min 0 min 5 W/m 6,3 km/h (2 Bft) 95,74 %
30.08.2017 04:38 19,8 C 18,3 C 16,7 C 84 % 1 lf 1007,5 hPa 0,0 l/m 0 min 0 min 0 W/m 6,3 km/h (2 Bft) 95,74 %
30.08.2017 04:40 19,8 C 18,3 C 16,7 C 84 % 1 lf 1007,4 hPa 0,0 l/m 0 min 0 min 0 W/m 8,4 km/h (2 Bft) 93,62 %
30.08.2017 04:42 19,7 C 18,3 C 16,7 C 84 % 1 lf 1007,4 hPa 0,0 l/m 0 min 0 min 0 W/m 8,4 km/h (2 Bft) 93,62 %
30.08.2017 04:44 19,7 C 18,3 C 16,7 C 85 % 1 lf 1007,4 hPa 0,0 l/m 0 min 0 min 0 W/m 8,4 km/h (2 Bft) 93,62 %
30.08.2017 04:46 19,7 C 18,3 C 16,7 C 85 % 1 lf 1007,3 hPa 0,0 l/m 0 min 0 min 0 W/m 8,4 km/h (2 Bft) 93,48 %
30.08.2017 04:48 19,7 C 18,3 C 16,7 C 85 % 1 lf 1007,3 hPa 0,0 l/m 0 min 0 min 0 W/m 6,3 km/h (2 Bft) 93,62 %
30.08.2017 04:50 19,6 C 18,3 C 16,7 C 85 % 1 lf 1007,3 hPa 0,0 l/m 0 min 0 min 3 W/m 6,3 km/h (2 Bft) 91,49 %
30.08.2017 04:52 19,6 C 18,3 C 16,7 C 85 % 1 lf 1007,3 hPa 0,0 l/m 0 min 0 min 5 W/m 4,2 km/h (1 Bft) 91,49 %
30.08.2017 04:54 19,6 C 18,3 C 16,7 C 85 % 1 lf 1007,3 hPa 0,0 l/m 0 min 0 min 0 W/m 4,2 km/h (1 Bft) 91,49 %
30.08.2017 04:56 19,6 C 18,3 C 16,7 C 85 % 1 lf 1007,2 hPa 0,0 l/m 0 min 0 min 1 W/m 4,2 km/h (1 Bft) 95,65 %
30.08.2017 04:58 19,5 C 18,3 C 16,7 C 85 % 1 lf 1007,2 hPa 0,0 l/m 0 min 0 min 1 W/m 6,3 km/h (2 Bft) 95,74 %
30.08.2017 05:00 19,5 C 18,3 C 16,7 C 85 % 1 lf 1007,2 hPa 0,0 l/m 0 min 0 min 3 W/m 6,3 km/h (2 Bft) 95,74 %
30.08.2017 05:02 19,4 C 18,3 C 16,7 C 85 % 1 lf 1007,2 hPa 0,0 l/m 0 min 0 min 0 W/m 8,4 km/h (2 Bft) 95,74 %
30.08.2017 05:04 19,4 C 18,3 C 16,7 C 85 % 1 lf 1007,2 hPa 0,0 l/m 0 min 0 min 0 W/m 8,4 km/h (2 Bft) 91,49 %
30.08.2017 05:06 19,4 C 18,3 C 16,7 C 86 % 1 lf 1007,2 hPa 0,0 l/m 0 min 0 min 5 W/m 8,4 km/h (2 Bft) 97,87 %
30.08.2017 05:08 19,4 C 18,3 C 16,7 C 86 % 1 lf 1007,1 hPa 0,0 l/m 0 min 0 min 0 W/m 8,4 km/h (2 Bft) 97,83 %
30.08.2017 05:10 19,4 C 18,3 C 16,7 C 86 % 1 lf 1007,1 hPa 0,0 l/m 0 min 0 min 0 W/m 6,3 km/h (2 Bft) 100,00 %
30.08.2017 05:12 19,3 C 18,3 C 16,7 C 86 % 1 lf 1007,1 hPa 0,0 l/m 0 min 0 min 3 W/m 6,3 km/h (2 Bft) 95,74 %
30.08.2017 05:14 19,3 C 18,3 C 16,7 C 86 % 1 lf 1007,1 hPa 0,0 l/m 0 min 0 min 0 W/m 6,3 km/h (2 Bft) 100,00 %
30.08.2017 05:16 19,3 C 18,3 C 16,7 C 86 % 1 lf 1007,1 hPa 0,0 l/m 0 min 0 min 0 W/m 6,3 km/h (2 Bft) 97,87 %
30.08.2017 05:18 19,3 C 18,3 C 16,7 C 86 % 1 lf 1007,1 hPa 0,0 l/m 0 min 0 min 0 W/m 6,3 km/h (2 Bft) 100,00 %
30.08.2017 05:20 19,2 C 18,3 C 16,7 C 86 % 1 lf 1007,2 hPa 0,0 l/m 0 min 0 min 0 W/m 6,3 km/h (2 Bft) 97,83 %
30.08.2017 05:22 19,2 C 18,3 C 16,7 C 86 % 1 lf 1007,2 hPa 0,0 l/m 0 min 0 min 0 W/m 4,2 km/h (1 Bft) 100,00 %
30.08.2017 05:24 19,2 C 18,3 C 16,7 C 86 % 1 lf 1007,2 hPa 0,0 l/m 0 min 0 min 0 W/m 2,1 km/h (1 Bft) 100,00 %
30.08.2017 05:26 19,2 C 18,3 C 16,1 C 86 % 1 lf 1007,2 hPa 0,0 l/m 0 min 0 min 0 W/m 2,1 km/h (1 Bft) 100,00 %
30.08.2017 05:28 19,2 C 17,8 C 16,1 C 86 % 1 lf 1007,1 hPa 0,0 l/m 0 min 0 min 0 W/m 4,2 km/h (1 Bft) 100,00 %
30.08.2017 05:30 19,2 C 17,8 C 16,1 C 86 % 1 lf 1007,1 hPa 0,0 l/m 0 min 0 min 4 W/m 8,4 km/h (2 Bft) 100,00 %
30.08.2017 05:32 19,1 C 17,8 C 16,1 C 86 % 1 lf 1007,1 hPa 0,0 l/m 0 min 0 min 5 W/m 8,4 km/h (2 Bft) 97,83 %
30.08.2017 05:34 19,1 C 18,3 C 16,1 C 86 % 1 lf 1007,1 hPa 0,0 l/m 0 min 0 min 3 W/m 6,3 km/h (2 Bft) 100,00 %
30.08.2017 05:36 19,1 C 18,3 C 16,1 C 86 % 1 lf 1007,1 hPa 0,0 l/m 0 min 0 min 2 W/m 8,4 km/h (2 Bft) 97,87 %
30.08.2017 05:38 19,1 C 18,3 C 16,1 C 87 % 1 lf 1007,1 hPa 0,0 l/m 0 min 0 min 0 W/m 4,2 km/h (1 Bft) 100,00 %
30.08.2017 05:40 19,1 C 18,3 C 16,1 C 87 % 1 lf 1007,1 hPa 0,0 l/m 0 min 0 min 0 W/m 6,3 km/h (2 Bft) 100,00 %
30.08.2017 05:42 19,0 C 18,3 C 16,1 C 87 % 1 lf 1007,0 hPa 0,0 l/m 0 min 0 min 0 W/m 8,4 km/h (2 Bft) 100,00 %
30.08.2017 05:44 19,0 C 18,3 C 16,1 C 87 % 1 lf 1007,1 hPa 0,0 l/m 0 min 0 min 0 W/m 8,4 km/h (2 Bft) 100,00 %
30.08.2017 05:46 19,0 C 18,3 C 16,1 C 87 % 1 lf 1007,0 hPa 0,0 l/m 0 min 0 min 0 W/m 6,3 km/h (2 Bft) 100,00 %
30.08.2017 05:48 19,0 C 18,3 C 16,7 C 87 % 1 lf 1007,1 hPa 0,0 l/m 0 min 0 min 0 W/m 6,3 km/h (2 Bft) 100,00 %
30.08.2017 05:50 18,9 C 18,3 C 16,7 C 87 % 1 lf 1007,1 hPa 0,0 l/m 0 min 0 min 0 W/m 6,3 km/h (2 Bft) 97,87 %
30.08.2017 05:52 18,9 C 18,3 C 16,1 C 87 % 1 lf 1007,0 hPa 0,0 l/m 0 min 0 min 0 W/m 6,3 km/h (2 Bft) 97,87 %
30.08.2017 05:54 18,9 C 18,3 C 16,1 C 88 % 1 lf 1007,0 hPa 0,0 l/m 0 min 0 min 0 W/m 8,4 km/h (2 Bft) 97,62 %
30.08.2017 05:56 18,9 C 18,3 C 16,1 C 88 % 1 lf 1006,9 hPa 0,0 l/m 0 min 0 min 0 W/m 10,5 km/h (2 Bft) 100,00 %
30.08.2017 05:58 18,9 C 18,3 C 16,1 C 87 % 1 lf 1006,9 hPa 0,0 l/m 0 min 0 min 0 W/m 6,3 km/h (2 Bft) 100,00 %
30.08.2017 06:00 18,9 C 18,3 C 16,7 C 87 % 1 lf 1006,9 hPa 0,0 l/m 0 min 0 min 0 W/m 14,6 km/h (3 Bft) 97,87 %
30.08.2017 06:02 18,9 C 18,3 C 16,7 C 87 % 1 lf 1006,9 hPa 0,0 l/m 0 min 0 min 0 W/m 10,5 km/h (2 Bft) 95,74 %
30.08.2017 06:04 18,9 C 18,3 C 16,7 C 87 % 1 lf 1006,8 hPa 0,0 l/m 0 min 0 min 0 W/m 10,5 km/h (2 Bft) 97,87 %
30.08.2017 06:06 18,9 C 18,3 C 16,7 C 88 % 0 lf 1006,8 hPa 0,0 l/m 0 min 0 min 0 W/m 16,7 km/h (3 Bft) 97,87 %
30.08.2017 06:10 18,8 C 18,3 C 16,7 C 88 % 0 lf 1006,7 hPa 0,0 l/m 0 min 0 min 0 W/m 14,6 km/h (3 Bft) 95,83 %
30.08.2017 06:12 18,8 C 18,3 C 16,7 C 88 % 0 lf 1006,6 hPa 0,0 l/m 0 min 0 min 0 W/m 14,6 km/h (3 Bft) 95,74 %
30.08.2017 06:14 18,8 C 18,9 C 16,7 C 88 % 0 lf 1006,6 hPa 0,0 l/m 0 min 0 min 0 W/m 14,6 km/h (3 Bft) 93,62 %
30.08.2017 06:16 18,8 C 18,9 C 17,2 C 88 % 0 lf 1006,6 hPa 0,0 l/m 0 min 0 min 0 W/m 14,6 km/h (3 Bft) 97,87 %
30.08.2017 06:18 18,8 C 18,9 C 17,2 C 88 % 0 lf 1006,5 hPa 0,0 l/m 0 min 0 min 0 W/m 14,6 km/h (3 Bft) 97,87 %
30.08.2017 06:20 18,8 C 18,9 C 17,2 C 88 % 0 lf 1006,5 hPa 0,0 l/m 0 min 0 min 0 W/m 14,6 km/h (3 Bft) 95,65 %
30.08.2017 06:22 18,8 C 18,9 C 17,2 C 88 % 0 lf 1006,5 hPa 0,0 l/m 0 min 0 min 4 W/m 16,7 km/h (3 Bft) 95,74 %
30.08.2017 06:24 18,8 C 18,9 C 17,2 C 88 % 0 lf 1006,6 hPa 0,0 l/m 0 min 0 min 5 W/m 14,6 km/h (3 Bft) 95,74 %
30.08.2017 06:26 18,8 C 18,9 C 17,2 C 88 % 0 lf 1006,5 hPa 0,0 l/m 0 min 0 min 5 W/m 16,7 km/h (3 Bft) 91,49 %
30.08.2017 06:28 18,8 C 18,9 C 17,2 C 88 % 0 lf 1006,4 hPa 0,0 l/m 0 min 0 min 0 W/m 16,7 km/h (3 Bft) 95,74 %
30.08.2017 06:30 18,9 C 18,9 C 17,2 C 88 % 0 lf 1006,4 hPa 0,0 l/m 0 min 0 min 7 W/m 16,7 km/h (3 Bft) 91,49 %
30.08.2017 06:32 18,9 C 18,9 C 17,2 C 88 % 0 lf 1006,4 hPa 0,0 l/m 0 min 0 min 7 W/m 14,6 km/h (3 Bft) 95,65 %
30.08.2017 06:34 18,9 C 18,9 C 17,2 C 88 % 0 lf 1006,3 hPa 0,0 l/m 0 min 0 min 7 W/m 12,6 km/h (3 Bft) 95,74 %
30.08.2017 06:36 18,9 C 18,9 C 17,2 C 88 % 0 lf 1006,3 hPa 0,0 l/m 0 min 0 min 8 W/m 10,5 km/h (2 Bft) 95,74 %
30.08.2017 06:38 18,9 C 18,9 C 17,2 C 88 % 0 lf 1006,3 hPa 0,0 l/m 0 min 0 min 9 W/m 18,8 km/h (3 Bft) 95,74 %
30.08.2017 06:40 18,9 C 18,9 C 17,2 C 88 % 0 lf 1006,3 hPa 0,0 l/m 0 min 0 min 7 W/m 14,6 km/h (3 Bft) 95,74 %
30.08.2017 06:42 18,9 C 18,9 C 17,2 C 88 % 0 lf 1006,2 hPa 0,0 l/m 0 min 0 min 7 W/m 14,6 km/h (3 Bft) 93,62 %
30.08.2017 06:44 18,9 C 18,9 C 17,8 C 88 % 0 lf 1006,3 hPa 0,0 l/m 0 min 0 min 7 W/m 14,6 km/h (3 Bft) 95,65 %
30.08.2017 06:46 18,9 C 18,9 C 17,8 C 88 % 0 lf 1006,2 hPa 0,0 l/m 0 min 0 min 7 W/m 16,7 km/h (3 Bft) 93,62 %
30.08.2017 06:48 19,0 C 19,4 C 17,8 C 88 % 0 lf 1006,3 hPa 0,0 l/m 0 min 0 min 8 W/m 18,8 km/h (3 Bft) 93,62 %
30.08.2017 06:50 19,0 C 19,4 C 17,8 C 88 % 0 lf 1006,3 hPa 0,0 l/m 0 min 0 min 9 W/m 14,6 km/h (3 Bft) 97,87 %
30.08.2017 06:52 19,1 C 19,4 C 17,8 C 88 % 0 lf 1006,3 hPa 0,0 l/m 0 min 0 min 11 W/m 14,6 km/h (3 Bft) 97,87 %
30.08.2017 06:54 19,1 C 19,4 C 17,8 C 88 % 0 lf 1006,3 hPa 0,0 l/m 0 min 0 min 11 W/m 20,9 km/h (4 Bft) 93,62 %
30.08.2017 06:56 19,1 C 19,4 C 17,8 C 87 % 0 lf 1006,3 hPa 0,0 l/m 0 min 0 min 12 W/m 18,8 km/h (3 Bft) 100,00 %
30.08.2017 06:58 19,1 C 19,4 C 17,8 C 87 % 0 lf 1006,3 hPa 0,0 l/m 0 min 0 min 12 W/m 14,6 km/h (3 Bft) 97,87 %
30.08.2017 07:00 19,2 C 19,4 C 18,3 C 87 % 0 lf 1006,3 hPa 0,0 l/m 0 min 0 min 12 W/m 10,5 km/h (2 Bft) 100,00 %
30.08.2017 07:02 19,2 C 19,4 C 18,3 C 87 % 0 lf 1006,3 hPa 0,0 l/m 0 min 0 min 12 W/m 14,6 km/h (3 Bft) 100,00 %
30.08.2017 07:04 19,2 C 19,4 C 18,3 C 87 % 0 lf 1006,3 hPa 0,0 l/m 0 min 0 min 13 W/m 10,5 km/h (2 Bft) 97,87 %
30.08.2017 07:06 19,2 C 19,4 C 17,8 C 87 % 0 lf 1006,3 hPa 0,0 l/m 0 min 0 min 14 W/m 6,3 km/h (2 Bft) 100,00 %
30.08.2017 07:08 19,2 C 19,4 C 17,8 C 87 % 0 lf 1006,3 hPa 0,0 l/m 0 min 0 min 15 W/m 8,4 km/h (2 Bft) 95,65 %
30.08.2017 07:10 19,3 C 19,4 C 17,8 C 87 % 0 lf 1006,2 hPa 0,0 l/m 0 min 0 min 17 W/m 8,4 km/h (2 Bft) 97,87 %
30.08.2017 07:12 19,3 C 19,4 C 17,8 C 87 % 0 lf 1006,3 hPa 0,0 l/m 0 min 0 min 19 W/m 6,3 km/h (2 Bft) 97,87 %
30.08.2017 07:14 19,3 C 19,4 C 17,8 C 87 % 0 lf 1006,2 hPa 0,0 l/m 0 min 0 min 22 W/m 6,3 km/h (2 Bft) 95,74 %
30.08.2017 07:16 19,3 C 19,4 C 17,8 C 87 % 0 lf 1006,1 hPa 0,0 l/m 0 min 0 min 25 W/m 10,5 km/h (2 Bft) 93,62 %
30.08.2017 07:18 19,3 C 19,4 C 17,8 C 87 % 0 lf 1006,1 hPa 0,0 l/m 0 min 0 min 28 W/m 16,7 km/h (3 Bft) 95,65 %
30.08.2017 07:20 19,3 C 19,4 C 17,8 C 87 % 0 lf 1006,1 hPa 0,0 l/m 0 min 0 min 30 W/m 10,5 km/h (2 Bft) 97,87 %
30.08.2017 07:22 19,3 C 19,4 C 17,8 C 87 % 0 lf 1006,2 hPa 0,0 l/m 0 min 0 min 28 W/m 14,6 km/h (3 Bft) 97,87 %
30.08.2017 07:24 19,4 C 19,4 C 18,3 C 87 % 0 lf 1006,1 hPa 0,0 l/m 0 min 0 min 30 W/m 20,9 km/h (4 Bft) 93,62 %
30.08.2017 07:26 19,4 C 20,0 C 18,3 C 87 % 0 lf 1006,1 hPa 0,0 l/m 0 min 0 min 32 W/m 16,7 km/h (3 Bft) 97,87 %
30.08.2017 07:28 19,4 C 20,0 C 18,3 C 87 % 0 lf 1006,1 hPa 0,0 l/m 0 min 0 min 38 W/m 18,8 km/h (3 Bft) 97,87 %
30.08.2017 07:30 19,4 C 20,0 C 18,9 C 87 % 0 lf 1006,0 hPa 0,0 l/m 0 min 0 min 42 W/m 23,0 km/h (4 Bft) 95,65 %
30.08.2017 07:32 19,5 C 20,0 C 18,9 C 87 % 0 lf 1006,0 hPa 0,0 l/m 0 min 0 min 41 W/m 18,8 km/h (3 Bft) 95,74 %
30.08.2017 07:34 19,6 C 20,0 C 18,9 C 87 % 0 lf 1005,8 hPa 0,0 l/m 0 min 0 min 39 W/m 16,7 km/h (3 Bft) 95,74 %
30.08.2017 07:36 19,6 C 20,0 C 18,9 C 87 % 0 lf 1005,7 hPa 0,0 l/m 0 min 0 min 39 W/m 18,8 km/h (3 Bft) 97,87 %
30.08.2017 07:38 19,6 C 20,0 C 18,9 C 86 % 0 lf 1005,7 hPa 0,0 l/m 0 min 0 min 37 W/m 20,9 km/h (4 Bft) 95,74 %
30.08.2017 07:40 19,7 C 20,6 C 18,9 C 86 % 0 lf 1005,7 hPa 0,0 l/m 0 min 0 min 35 W/m 27,2 km/h (4 Bft) 97,87 %
30.08.2017 07:42 19,7 C 20,6 C 18,9 C 86 % 0 lf 1005,7 hPa 0,0 l/m 0 min 0 min 37 W/m 25,1 km/h (4 Bft) 95,65 %
30.08.2017 07:44 19,8 C 20,6 C 19,4 C 86 % 0 lf 1005,6 hPa 0,0 l/m 0 min 0 min 40 W/m 18,8 km/h (3 Bft) 95,74 %
30.08.2017 07:46 19,8 C 20,6 C 19,4 C 86 % 0 lf 1005,5 hPa 0,0 l/m 0 min 0 min 43 W/m 20,9 km/h (4 Bft) 93,62 %
30.08.2017 07:48 19,9 C 20,6 C 19,4 C 86 % 0 lf 1005,5 hPa 0,0 l/m 0 min 0 min 48 W/m 25,1 km/h (4 Bft) 95,74 %
30.08.2017 07:50 19,9 C 20,6 C 19,4 C 85 % 0 lf 1005,5 hPa 0,0 l/m 0 min 0 min 51 W/m 23,0 km/h (4 Bft) 95,74 %
30.08.2017 07:52 20,0 C 20,6 C 19,4 C 85 % 0 lf 1005,5 hPa 0,0 l/m 0 min 0 min 55 W/m 23,0 km/h (4 Bft) 87,23 %
30.08.2017 07:54 20,1 C 20,6 C 19,4 C 85 % 0 lf 1005,5 hPa 0,0 l/m 0 min 0 min 58 W/m 23,0 km/h (4 Bft) 93,48 %
30.08.2017 07:56 20,2 C 20,6 C 19,4 C 85 % 0 lf 1005,5 hPa 0,0 l/m 0 min 0 min 61 W/m 29,3 km/h (5 Bft) 95,74 %
30.08.2017 07:58 20,2 C 20,6 C 19,4 C 85 % 0 lf 1005,5 hPa 0,0 l/m 0 min 0 min 64 W/m 20,9 km/h (4 Bft) 95,74 %
30.08.2017 08:00 20,3 C 21,1 C 19,4 C 84 % 0 lf 1005,5 hPa 0,0 l/m 0 min 0 min 70 W/m 23,0 km/h (4 Bft) 95,74 %
30.08.2017 08:02 20,3 C 21,1 C 20,0 C 84 % 0 lf 1005,5 hPa 0,0 l/m 0 min 0 min 77 W/m 20,9 km/h (4 Bft) 95,74 %
30.08.2017 08:04 20,4 C 21,1 C 20,0 C 84 % 0 lf 1005,5 hPa 0,0 l/m 0 min 0 min 82 W/m 20,9 km/h (4 Bft) 93,62 %
30.08.2017 08:06 20,4 C 21,1 C 20,0 C 84 % 0 lf 1005,5 hPa 0,0 l/m 0 min 0 min 87 W/m 18,8 km/h (3 Bft) 95,65 %
30.08.2017 08:08 20,5 C 21,1 C 20,0 C 84 % 0 lf 1005,5 hPa 0,0 l/m 0 min 0 min 91 W/m 18,8 km/h (3 Bft) 93,62 %
30.08.2017 08:10 20,6 C 21,1 C 20,0 C 84 % 0 lf 1005,6 hPa 0,0 l/m 0 min 0 min 90 W/m 18,8 km/h (3 Bft) 97,87 %
30.08.2017 08:12 20,6 C 21,1 C 20,6 C 83 % 0 lf 1005,5 hPa 0,0 l/m 0 min 0 min 89 W/m 18,8 km/h (3 Bft) 95,74 %
30.08.2017 08:14 20,7 C 21,1 C 20,6 C 83 % 0 lf 1005,5 hPa 0,0 l/m 0 min 0 min 89 W/m 25,1 km/h (4 Bft) 97,87 %
30.08.2017 08:16 20,7 C 21,1 C 20,6 C 83 % 0 lf 1005,6 hPa 0,0 l/m 0 min 0 min 90 W/m 14,6 km/h (3 Bft) 95,74 %
30.08.2017 08:18 20,8 C 21,7 C 20,6 C 83 % 0 lf 1006,2 hPa 0,0 l/m 0 min 0 min 84 W/m 18,8 km/h (3 Bft) 97,83 %
30.08.2017 08:20 20,8 C 21,7 C 20,6 C 83 % 0 lf 1006,3 hPa 0,0 l/m 0 min 0 min 77 W/m 18,8 km/h (3 Bft) 97,87 %
30.08.2017 08:22 20,9 C 21,7 C 20,6 C 83 % 0 lf 1006,4 hPa 0,0 l/m 0 min 0 min 63 W/m 12,6 km/h (3 Bft) 95,74 %
30.08.2017 08:24 20,9 C 21,1 C 20,6 C 83 % 0 lf 1006,7 hPa 0,0 l/m 0 min 0 min 56 W/m 14,6 km/h (3 Bft) 93,62 %
30.08.2017 08:26 20,9 C 21,1 C 20,0 C 83 % 0 lf 1006,1 hPa 0,0 l/m 0 min 0 min 54 W/m 16,7 km/h (3 Bft) 95,74 %
30.08.2017 08:28 20,9 C 21,1 C 20,0 C 83 % 0 lf 1006,2 hPa 0,0 l/m 0 min 0 min 56 W/m 8,4 km/h (2 Bft) 95,74 %
30.08.2017 08:30 21,0 C 21,1 C 20,0 C 83 % 0 lf 1006,7 hPa 0,0 l/m 0 min 0 min 56 W/m 12,6 km/h (3 Bft) 95,65 %
30.08.2017 08:32 21,0 C 21,1 C 20,0 C 83 % 0 lf 1006,4 hPa 0,0 l/m 0 min 0 min 57 W/m 10,5 km/h (2 Bft) 95,74 %
30.08.2017 08:34 21,0 C 21,1 C 20,0 C 82 % 0 lf 1006,4 hPa 0,0 l/m 0 min 0 min 63 W/m 4,2 km/h (1 Bft) 95,74 %
30.08.2017 08:37 21,0 C 21,7 C 20,6 C 83 % 0 lf 1006,6 hPa 0,0 l/m 0 min 0 min 68 W/m 8,4 km/h (2 Bft) 95,71 %
30.08.2017 08:38 21,0 C 21,7 C 20,6 C 83 % 0 lf 1006,6 hPa 0,0 l/m 0 min 0 min 65 W/m 8,4 km/h (2 Bft) 91,67 %
30.08.2017 08:40 21,0 C 21,7 C 20,6 C 83 % 0 lf 1006,6 hPa 0,0 l/m 0 min 0 min 62 W/m 6,3 km/h (2 Bft) 93,62 %
30.08.2017 08:42 21,1 C 21,7 C 20,6 C 83 % 0 lf 1006,5 hPa 0,0 l/m 0 min 0 min 61 W/m 2,1 km/h (1 Bft) 95,65 %
30.08.2017 08:44 21,1 C 21,7 C 20,6 C 82 % 0 lf 1006,7 hPa 0,0 l/m 0 min 0 min 58 W/m 6,3 km/h (2 Bft) 91,49 %
30.08.2017 08:46 21,1 C 21,7 C 20,6 C 83 % 0 lf 1006,9 hPa 0,0 l/m 0 min 0 min 52 W/m 6,3 km/h (2 Bft) 93,62 %
30.08.2017 08:48 21,1 C 21,7 C 20,6 C 83 % 0 lf 1006,9 hPa 0,0 l/m 0 min 0 min 45 W/m 4,2 km/h (1 Bft) 95,74 %
30.08.2017 08:50 21,1 C 21,1 C 20,0 C 83 % 0 lf 1006,8 hPa 0,0 l/m 0 min 0 min 41 W/m 0,0 km/h (0 Bft) 93,62 %
30.08.2017 08:52 21,1 C 21,1 C 20,0 C 83 % 0 lf 1006,9 hPa 0,0 l/m 0 min 0 min 37 W/m 0,0 km/h (0 Bft) 95,65 %
30.08.2017 08:54 21,1 C 21,1 C 20,0 C 83 % 0 lf 1007,0 hPa 0,0 l/m 0 min 0 min 35 W/m 0,0 km/h (0 Bft) 95,74 %
30.08.2017 08:56 21,1 C 21,1 C 20,0 C 83 % 0 lf 1006,9 hPa 0,0 l/m 0 min 0 min 34 W/m 0,0 km/h (0 Bft) 95,74 %
30.08.2017 08:58 21,1 C 21,1 C 20,0 C 83 % 0 lf 1007,0 hPa 0,0 l/m 0 min 0 min 32 W/m 0,0 km/h (0 Bft) 91,49 %
30.08.2017 09:00 21,2 C 20,6 C 20,0 C 83 % 0 lf 1007,1 hPa 0,0 l/m 0 min 0 min 28 W/m 0,0 km/h (0 Bft) 97,87 %
30.08.2017 09:02 21,2 C 20,6 C 20,0 C 83 % 0 lf 1007,4 hPa 0,0 l/m 0 min 0 min 25 W/m 8,4 km/h (2 Bft) 95,74 %
30.08.2017 09:04 21,2 C 20,6 C 20,0 C 83 % 2 lf 1007,5 hPa 0,0 l/m 0 min 0 min 26 W/m 10,5 km/h (2 Bft) 97,83 %
30.08.2017 09:06 21,2 C 20,6 C 19,4 C 83 % 0 lf 1007,6 hPa 0,0 l/m 0 min 2 min 32 W/m 10,5 km/h (2 Bft) 93,62 %
30.08.2017 09:08 21,1 C 20,6 C 19,4 C 83 % 0 lf 1007,6 hPa 0,0 l/m 0 min 2 min 42 W/m 10,5 km/h (2 Bft) 97,87 %
30.08.2017 09:10 21,1 C 20,6 C 19,4 C 83 % 4 lf 1007,8 hPa 0,0 l/m 0 min 2 min 52 W/m 10,5 km/h (2 Bft) 97,87 %
30.08.2017 09:12 21,1 C 20,6 C 19,4 C 83 % 1 lf 1007,7 hPa 0,0 l/m 0 min 0 min 65 W/m 6,3 km/h (2 Bft) 97,87 %
30.08.2017 09:14 21,1 C 21,1 C 19,4 C 83 % 0 lf 1007,6 hPa 0,0 l/m 0 min 0 min 85 W/m 6,3 km/h (2 Bft) 95,74 %
30.08.2017 09:16 21,1 C 21,1 C 20,0 C 84 % 2 lf 1007,7 hPa 0,0 l/m 0 min 0 min 99 W/m 8,4 km/h (2 Bft) 97,83 %
30.08.2017 09:18 21,1 C 21,1 C 20,0 C 84 % 0 lf 1007,9 hPa 0,0 l/m 0 min 0 min 114 W/m 6,3 km/h (2 Bft) 97,87 %
30.08.2017 09:20 21,1 C 21,7 C 20,6 C 84 % 0 lf 1007,9 hPa 0,0 l/m 0 min 0 min 133 W/m 6,3 km/h (2 Bft) 95,74 %
30.08.2017 09:22 21,1 C 21,7 C 20,6 C 84 % 0 lf 1007,9 hPa 0,0 l/m 0 min 0 min 131 W/m 6,3 km/h (2 Bft) 95,74 %
30.08.2017 09:24 21,1 C 21,7 C 20,6 C 84 % 0 lf 1007,7 hPa 0,0 l/m 0 min 0 min 110 W/m 8,4 km/h (2 Bft) 93,62 %
30.08.2017 09:26 21,1 C 21,7 C 20,6 C 84 % 0 lf 1007,4 hPa 0,0 l/m 0 min 0 min 84 W/m 6,3 km/h (2 Bft) 97,87 %
30.08.2017 09:28 21,1 C 21,7 C 20,6 C 84 % 0 lf 1007,5 hPa 0,0 l/m 0 min 0 min 69 W/m 6,3 km/h (2 Bft) 97,83 %
30.08.2017 09:30 21,1 C 21,7 C 20,6 C 84 % 0 lf 1007,3 hPa 0,0 l/m 0 min 0 min 58 W/m 6,3 km/h (2 Bft) 100,00 %
30.08.2017 09:32 21,1 C 21,1 C 20,0 C 84 % 0 lf 1007,2 hPa 0,0 l/m 0 min 0 min 48 W/m 10,5 km/h (2 Bft) 100,00 %
30.08.2017 09:34 21,1 C 21,1 C 20,0 C 84 % 0 lf 1007,0 hPa 0,0 l/m 0 min 0 min 39 W/m 10,5 km/h (2 Bft) 97,92 %
30.08.2017 09:36 21,1 C 21,1 C 20,0 C 84 % 0 lf 1007,1 hPa 0,0 l/m 0 min 0 min 34 W/m 10,5 km/h (2 Bft) 95,74 %
30.08.2017 09:38 21,1 C 21,1 C 20,0 C 84 % 0 lf 1007,2 hPa 0,0 l/m 0 min 0 min 33 W/m 10,5 km/h (2 Bft) 100,00 %
30.08.2017 09:40 21,1 C 20,6 C 19,4 C 84 % 15 lf 1007,3 hPa 0,0 l/m 0 min 2 min 30 W/m 23,0 km/h (4 Bft) 97,83 %
30.08.2017 09:42 21,1 C 20,0 C 18,3 C 85 % 15 lf 1007,2 hPa 0,0 l/m 0 min 2 min 26 W/m 18,8 km/h (3 Bft) 97,92 %
30.08.2017 09:44 21,1 C 19,4 C 17,8 C 85 % 15 lf 1007,0 hPa 0,0 l/m 0 min 2 min 22 W/m 16,7 km/h (3 Bft) 100,00 %
30.08.2017 09:46 21,0 C 19,4 C 17,8 C 85 % 15 lf 1007,1 hPa 0,2 l/m 0 min 2 min 21 W/m 14,6 km/h (3 Bft) 97,87 %
30.08.2017 09:48 21,0 C 18,9 C 17,8 C 86 % 15 lf 1007,1 hPa 0,0 l/m 0 min 2 min 21 W/m 14,6 km/h (3 Bft) 100,00 %
30.08.2017 09:50 21,0 C 18,9 C 17,2 C 86 % 15 lf 1007,1 hPa 0,0 l/m 0 min 2 min 22 W/m 14,6 km/h (3 Bft) 100,00 %
30.08.2017 09:52 20,9 C 18,9 C 17,2 C 86 % 15 lf 1006,9 hPa 0,2 l/m 0 min 2 min 24 W/m 14,6 km/h (3 Bft) 100,00 %
30.08.2017 09:54 20,9 C 18,9 C 17,2 C 86 % 15 lf 1006,9 hPa 0,0 l/m 0 min 2 min 27 W/m 20,9 km/h (4 Bft) 97,87 %
30.08.2017 09:56 20,8 C 18,9 C 17,2 C 86 % 15 lf 1006,8 hPa 0,2 l/m 0 min 2 min 31 W/m 18,8 km/h (3 Bft) 100,00 %
30.08.2017 09:58 20,7 C 18,9 C 17,2 C 87 % 15 lf 1006,9 hPa 0,0 l/m 0 min 2 min 35 W/m 18,8 km/h (3 Bft) 100,00 %
30.08.2017 10:00 20,6 C 18,9 C 17,2 C 87 % 15 lf 1006,8 hPa 0,0 l/m 0 min 2 min 36 W/m 16,7 km/h (3 Bft) 100,00 %
30.08.2017 10:02 20,6 C 18,9 C 17,2 C 87 % 15 lf 1006,8 hPa 0,2 l/m 0 min 2 min 40 W/m 6,3 km/h (2 Bft) 97,56 %
30.08.2017 10:04 20,6 C 18,3 C 17,8 C 87 % 15 lf 1006,7 hPa 0,0 l/m 0 min 2 min 44 W/m 4,2 km/h (1 Bft) 97,87 %
30.08.2017 10:06 20,5 C 18,3 C 17,8 C 88 % 15 lf 1006,7 hPa 0,0 l/m 0 min 0 min 55 W/m 8,4 km/h (2 Bft) 100,00 %
30.08.2017 10:08 20,4 C 18,3 C 17,8 C 88 % 15 lf 1006,8 hPa 0,0 l/m 0 min 0 min 62 W/m 6,3 km/h (2 Bft) 91,67 %
30.08.2017 10:10 20,4 C 18,9 C 17,8 C 88 % 15 lf 1006,8 hPa 0,0 l/m 0 min 0 min 53 W/m 8,4 km/h (2 Bft) 97,92 %
30.08.2017 10:12 20,4 C 18,3 C 17,8 C 88 % 15 lf 1006,8 hPa 0,0 l/m 0 min 0 min 45 W/m 12,6 km/h (3 Bft) 95,83 %
30.08.2017 10:14 20,3 C 18,3 C 17,8 C 89 % 15 lf 1006,8 hPa 0,0 l/m 0 min 0 min 45 W/m 14,6 km/h (3 Bft) 100,00 %
30.08.2017 10:16 20,3 C 18,3 C 17,8 C 89 % 15 lf 1006,8 hPa 0,0 l/m 0 min 0 min 49 W/m 14,6 km/h (3 Bft) 100,00 %
30.08.2017 10:18 20,2 C 18,9 C 17,8 C 89 % 15 lf 1006,8 hPa 0,0 l/m 0 min 0 min 52 W/m 14,6 km/h (3 Bft) 97,87 %
30.08.2017 10:20 20,2 C 18,9 C 17,8 C 89 % 15 lf 1006,8 hPa 0,0 l/m 0 min 2 min 54 W/m 10,5 km/h (2 Bft) 97,87 %
30.08.2017 10:22 20,2 C 18,9 C 17,8 C 89 % 15 lf 1006,9 hPa 0,0 l/m 0 min 2 min 55 W/m 4,2 km/h (1 Bft) 93,62 %
30.08.2017 10:26 20,1 C 18,9 C 17,8 C 90 % 15 lf 1007,0 hPa 0,0 l/m 0 min 4 min 68 W/m 4,2 km/h (1 Bft) 97,22 %
30.08.2017 10:28 20,1 C 18,9 C 17,8 C 90 % 15 lf 1007,0 hPa 0,0 l/m 0 min 2 min 74 W/m 4,2 km/h (1 Bft) 91,49 %
30.08.2017 10:30 20,1 C 18,9 C 17,8 C 90 % 15 lf 1007,0 hPa 0,0 l/m 0 min 2 min 85 W/m 4,2 km/h (1 Bft) 92,86 %
30.08.2017 10:32 20,1 C 18,9 C 18,3 C 90 % 15 lf 1007,1 hPa 0,0 l/m 0 min 0 min 92 W/m 0,0 km/h (0 Bft) 96,00 %
30.08.2017 10:34 20,0 C 18,9 C 18,3 C 91 % 15 lf 1007,1 hPa 0,0 l/m 0 min 2 min 88 W/m 8,4 km/h (2 Bft) 95,92 %
30.08.2017 10:36 20,0 C 18,9 C 18,3 C 91 % 15 lf 1007,1 hPa 0,0 l/m 0 min 0 min 69 W/m 4,2 km/h (1 Bft) 95,65 %
30.08.2017 10:38 20,0 C 18,9 C 18,3 C 91 % 15 lf 1007,2 hPa 0,0 l/m 0 min 2 min 46 W/m 2,1 km/h (1 Bft) 95,24 %
30.08.2017 10:40 20,0 C 18,9 C 17,8 C 91 % 15 lf 1007,2 hPa 0,0 l/m 0 min 2 min 33 W/m 6,3 km/h (2 Bft) 96,00 %
30.08.2017 10:42 20,0 C 18,9 C 17,8 C 91 % 15 lf 1007,3 hPa 0,0 l/m 0 min 2 min 33 W/m 4,2 km/h (1 Bft) 93,88 %
30.08.2017 10:44 20,0 C 18,9 C 17,8 C 91 % 15 lf 1007,5 hPa 0,0 l/m 0 min 2 min 41 W/m 2,1 km/h (1 Bft) 95,74 %
30.08.2017 10:46 20,0 C 18,9 C 17,8 C 91 % 15 lf 1007,6 hPa 0,0 l/m 0 min 2 min 57 W/m 4,2 km/h (1 Bft) 97,87 %
30.08.2017 10:48 20,0 C 18,9 C 18,3 C 91 % 15 lf 1007,6 hPa 0,0 l/m 0 min 2 min 87 W/m 8,4 km/h (2 Bft) 95,12 %
30.08.2017 10:50 20,0 C 18,9 C 18,3 C 92 % 15 lf 1007,7 hPa 0,0 l/m 0 min 0 min 121 W/m 6,3 km/h (2 Bft) 94,00 %
30.08.2017 10:52 20,0 C 19,4 C 18,9 C 92 % 15 lf 1007,8 hPa 0,0 l/m 0 min 0 min 144 W/m 8,4 km/h (2 Bft) 93,62 %
30.08.2017 10:54 20,0 C 19,4 C 18,9 C 92 % 15 lf 1007,8 hPa 0,0 l/m 0 min 0 min 146 W/m 6,3 km/h (2 Bft) 93,88 %
30.08.2017 10:56 20,1 C 19,4 C 19,4 C 92 % 15 lf 1007,8 hPa 0,0 l/m 0 min 0 min 130 W/m 4,2 km/h (1 Bft) 95,74 %
30.08.2017 10:58 20,1 C 19,4 C 18,9 C 93 % 15 lf 1007,6 hPa 0,0 l/m 0 min 0 min 98 W/m 4,2 km/h (1 Bft) 97,62 %
30.08.2017 11:00 20,1 C 19,4 C 18,9 C 93 % 15 lf 1007,5 hPa 0,0 l/m 0 min 0 min 83 W/m 4,2 km/h (1 Bft) 93,88 %
30.08.2017 11:02 20,1 C 19,4 C 18,9 C 93 % 15 lf 1007,3 hPa 0,0 l/m 0 min 0 min 82 W/m 4,2 km/h (1 Bft) 97,87 %
30.08.2017 11:04 20,1 C 19,4 C 18,3 C 93 % 15 lf 1007,2 hPa 0,0 l/m 0 min 0 min 82 W/m 6,3 km/h (2 Bft) 95,92 %
30.08.2017 11:06 20,1 C 20,0 C 18,3 C 93 % 15 lf 1007,2 hPa 0,0 l/m 0 min 0 min 91 W/m 6,3 km/h (2 Bft) 95,74 %
30.08.2017 11:08 20,1 C 20,0 C 18,3 C 93 % 15 lf 1007,0 hPa 0,0 l/m 0 min 2 min 99 W/m 6,3 km/h (2 Bft) 95,24 %
30.08.2017 11:10 20,1 C 20,0 C 18,9 C 93 % 15 lf 1006,9 hPa 0,0 l/m 0 min 2 min 110 W/m 2,1 km/h (1 Bft) 96,00 %
30.08.2017 11:12 20,1 C 20,0 C 18,9 C 93 % 15 lf 1006,9 hPa 0,0 l/m 0 min 2 min 107 W/m 2,1 km/h (1 Bft) 93,75 %
30.08.2017 11:14 20,1 C 20,0 C 19,4 C 93 % 15 lf 1006,8 hPa 0,0 l/m 0 min 2 min 93 W/m 2,1 km/h (1 Bft) 95,74 %
30.08.2017 11:16 20,1 C 20,0 C 18,9 C 93 % 15 lf 1006,9 hPa 0,0 l/m 0 min 2 min 82 W/m 4,2 km/h (1 Bft) 100,00 %
30.08.2017 11:18 20,2 C 20,0 C 18,9 C 93 % 15 lf 1007,0 hPa 0,0 l/m 0 min 0 min 71 W/m 8,4 km/h (2 Bft) 98,00 %
30.08.2017 11:20 20,2 C 19,4 C 18,9 C 93 % 15 lf 1007,0 hPa 0,0 l/m 0 min 0 min 64 W/m 8,4 km/h (2 Bft) 97,96 %
30.08.2017 11:22 20,2 C 19,4 C 18,3 C 94 % 15 lf 1007,0 hPa 0,0 l/m 0 min 0 min 72 W/m 2,1 km/h (1 Bft) 95,74 %
30.08.2017 11:24 20,2 C 20,0 C 18,9 C 94 % 15 lf 1007,1 hPa 0,0 l/m 0 min 0 min 91 W/m 4,2 km/h (1 Bft) 93,48 %
30.08.2017 11:26 20,2 C 20,0 C 18,9 C 94 % 15 lf 1007,1 hPa 0,0 l/m 0 min 0 min 112 W/m 2,1 km/h (1 Bft) 95,24 %
30.08.2017 11:28 20,2 C 20,0 C 19,4 C 94 % 15 lf 1007,0 hPa 0,0 l/m 0 min 0 min 124 W/m 4,2 km/h (1 Bft) 96,00 %
30.08.2017 11:30 20,2 C 20,0 C 19,4 C 94 % 15 lf 1007,1 hPa 0,0 l/m 0 min 0 min 138 W/m 8,4 km/h (2 Bft) 95,92 %
30.08.2017 11:32 20,2 C 20,6 C 19,4 C 94 % 15 lf 1007,2 hPa 0,0 l/m 0 min 0 min 150 W/m 10,5 km/h (2 Bft) 91,49 %
30.08.2017 11:34 20,2 C 20,6 C 19,4 C 94 % 15 lf 1007,1 hPa 0,0 l/m 0 min 0 min 162 W/m 6,3 km/h (2 Bft) 93,62 %
30.08.2017 11:36 20,2 C 20,6 C 19,4 C 94 % 15 lf 1007,1 hPa 0,0 l/m 0 min 0 min 170 W/m 8,4 km/h (2 Bft) 95,12 %
30.08.2017 11:38 20,3 C 21,1 C 20,0 C 94 % 15 lf 1007,0 hPa 0,0 l/m 0 min 0 min 170 W/m 6,3 km/h (2 Bft) 96,00 %
30.08.2017 11:40 20,3 C 21,1 C 19,4 C 94 % 15 lf 1007,0 hPa 0,0 l/m 0 min 0 min 160 W/m 6,3 km/h (2 Bft) 94,00 %
30.08.2017 11:42 20,3 C 21,1 C 20,0 C 94 % 15 lf 1007,0 hPa 0,0 l/m 0 min 0 min 159 W/m 6,3 km/h (2 Bft) 93,88 %
30.08.2017 11:44 20,3 C 21,1 C 20,0 C 94 % 15 lf 1007,0 hPa 0,0 l/m 0 min 0 min 162 W/m 6,3 km/h (2 Bft) 93,62 %
30.08.2017 11:46 20,3 C 21,7 C 20,0 C 94 % 15 lf 1007,0 hPa 0,0 l/m 0 min 0 min 172 W/m 4,2 km/h (1 Bft) 94,29 %
30.08.2017 11:48 20,4 C 22,2 C 20,0 C 94 % 15 lf 1007,1 hPa 0,0 l/m 0 min 0 min 191 W/m 4,2 km/h (1 Bft) 96,23 %
30.08.2017 11:50 20,4 C 22,2 C 20,6 C 94 % 15 lf 1007,1 hPa 0,0 l/m 0 min 0 min 219 W/m 4,2 km/h (1 Bft) 91,49 %
30.08.2017 11:52 20,4 C 22,8 C 20,6 C 94 % 13 lf 1007,1 hPa 0,0 l/m 0 min 0 min 272 W/m 4,2 km/h (1 Bft) 95,74 %
30.08.2017 11:54 20,5 C 23,9 C 21,7 C 94 % 6 lf 1007,0 hPa 0,0 l/m 0 min 0 min 272 W/m 2,1 km/h (1 Bft) 96,00 %
30.08.2017 11:56 20,6 C 25,0 C 21,1 C 94 % 3 lf 1006,9 hPa 0,0 l/m 0 min 0 min 286 W/m 2,1 km/h (1 Bft) 95,74 %
30.08.2017 11:58 20,6 C 25,6 C 21,7 C 95 % 1 lf 1006,9 hPa 0,0 l/m 0 min 0 min 289 W/m 2,1 km/h (1 Bft) 93,75 %
30.08.2017 12:00 20,7 C 25,6 C 21,7 C 95 % 1 lf 1006,9 hPa 0,0 l/m 0 min 0 min 311 W/m 0,0 km/h (0 Bft) 97,22 %
30.08.2017 12:02 20,7 C 26,1 C 22,2 C 95 % 0 lf 1006,9 hPa 0,0 l/m 2 min 0 min 369 W/m 6,3 km/h (2 Bft) 94,34 %
30.08.2017 12:04 20,8 C 26,1 C 22,8 C 95 % 0 lf 1006,9 hPa 0,0 l/m 2 min 0 min 357 W/m 8,4 km/h (2 Bft) 94,00 %
30.08.2017 12:06 20,9 C 27,8 C 22,8 C 95 % 0 lf 1006,9 hPa 0,0 l/m 2 min 0 min 349 W/m 8,4 km/h (2 Bft) 95,92 %
30.08.2017 12:10 21,1 C 30,0 C 23,9 C 95 % 0 lf 1006,9 hPa 0,0 l/m 4 min 0 min 476 W/m 10,5 km/h (2 Bft) 97,56 %
30.08.2017 12:12 21,2 C 31,1 C 23,9 C 95 % 0 lf 1006,8 hPa 0,0 l/m 2 min 0 min 626 W/m 4,2 km/h (1 Bft) 97,87 %
30.08.2017 12:14 21,4 C 30,6 C 24,4 C 95 % 0 lf 1006,8 hPa 0,0 l/m 2 min 0 min 615 W/m 10,5 km/h (2 Bft) 95,65 %
30.08.2017 12:16 21,6 C 32,2 C 24,4 C 94 % 0 lf 1006,9 hPa 0,0 l/m 2 min 0 min 600 W/m 6,3 km/h (2 Bft) 97,87 %
30.08.2017 12:18 21,7 C 31,7 C 24,4 C 94 % 0 lf 1006,9 hPa 0,0 l/m 2 min 0 min 554 W/m 6,3 km/h (2 Bft) 100,00 %
30.08.2017 12:20 21,7 C 29,4 C 24,4 C 93 % 0 lf 1006,8 hPa 0,0 l/m 2 min 0 min 521 W/m 8,4 km/h (2 Bft) 97,87 %
30.08.2017 12:22 21,8 C 28,9 C 24,4 C 93 % 0 lf 1006,7 hPa 0,0 l/m 2 min 0 min 936 W/m 8,4 km/h (2 Bft) 97,87 %
30.08.2017 12:24 22,0 C 29,4 C 24,4 C 92 % 0 lf 1006,8 hPa 0,0 l/m 2 min 0 min 744 W/m 6,3 km/h (2 Bft) 100,00 %
30.08.2017 12:26 22,1 C 28,9 C 24,4 C 92 % 0 lf 1006,7 hPa 0,0 l/m 2 min 0 min 745 W/m 6,3 km/h (2 Bft) 89,36 %
30.08.2017 12:28 22,3 C 27,8 C 24,4 C 91 % 0 lf 1006,7 hPa 0,0 l/m 2 min 0 min 747 W/m 8,4 km/h (2 Bft) 97,87 %
30.08.2017 12:30 22,5 C 28,3 C 24,4 C 91 % 0 lf 1006,6 hPa 0,0 l/m 2 min 0 min 749 W/m 10,5 km/h (2 Bft) 97,87 %
30.08.2017 12:32 22,6 C 28,3 C 24,4 C 90 % 0 lf 1006,6 hPa 0,0 l/m 2 min 0 min 750 W/m 10,5 km/h (2 Bft) 98,11 %
30.08.2017 12:34 22,7 C 27,8 C 24,4 C 89 % 0 lf 1006,5 hPa 0,0 l/m 2 min 0 min 752 W/m 6,3 km/h (2 Bft) 97,87 %
30.08.2017 12:36 22,8 C 27,2 C 25,0 C 87 % 0 lf 1006,4 hPa 0,0 l/m 2 min 0 min 753 W/m 10,5 km/h (2 Bft) 95,74 %
30.08.2017 12:38 22,9 C 27,2 C 25,6 C 86 % 0 lf 1006,3 hPa 0,0 l/m 2 min 0 min 558 W/m 10,5 km/h (2 Bft) 97,87 %
30.08.2017 12:40 23,1 C 28,3 C 25,6 C 86 % 0 lf 1006,3 hPa 0,0 l/m 2 min 0 min 519 W/m 16,7 km/h (3 Bft) 95,74 %
30.08.2017 12:42 23,2 C 28,3 C 25,0 C 85 % 0 lf 1006,3 hPa 0,0 l/m 2 min 0 min 580 W/m 14,6 km/h (3 Bft) 97,87 %
30.08.2017 12:44 23,4 C 28,3 C 25,6 C 84 % 0 lf 1006,3 hPa 0,0 l/m 2 min 0 min 758 W/m 14,6 km/h (3 Bft) 95,65 %
30.08.2017 12:46 23,5 C 27,8 C 25,6 C 84 % 0 lf 1006,3 hPa 0,0 l/m 2 min 0 min 760 W/m 12,6 km/h (3 Bft) 97,87 %
30.08.2017 12:48 23,7 C 28,3 C 25,0 C 83 % 0 lf 1006,3 hPa 0,0 l/m 2 min 0 min 761 W/m 14,6 km/h (3 Bft) 97,87 %
30.08.2017 12:50 23,8 C 28,3 C 25,0 C 83 % 0 lf 1006,4 hPa 0,0 l/m 2 min 0 min 762 W/m 14,6 km/h (3 Bft) 97,87 %
30.08.2017 12:52 23,9 C 27,8 C 25,0 C 82 % 0 lf 1006,3 hPa 0,0 l/m 2 min 0 min 993 W/m 8,4 km/h (2 Bft) 97,87 %
30.08.2017 12:54 23,9 C 27,2 C 25,6 C 81 % 0 lf 1006,3 hPa 0,0 l/m 2 min 0 min 764 W/m 6,3 km/h (2 Bft) 95,74 %
30.08.2017 12:56 24,0 C 27,2 C 25,6 C 81 % 0 lf 1006,4 hPa 0,0 l/m 2 min 0 min 765 W/m 6,3 km/h (2 Bft) 95,65 %
30.08.2017 12:58 24,1 C 28,3 C 26,1 C 81 % 0 lf 1006,4 hPa 0,0 l/m 2 min 0 min 766 W/m 8,4 km/h (2 Bft) 97,87 %
30.08.2017 13:00 24,1 C 28,3 C 26,1 C 80 % 0 lf 1006,4 hPa 0,0 l/m 2 min 0 min 767 W/m 12,6 km/h (3 Bft) 97,87 %
30.08.2017 13:02 24,2 C 30,0 C 26,7 C 80 % 0 lf 1006,4 hPa 0,0 l/m 2 min 0 min 768 W/m 6,3 km/h (2 Bft) 100,00 %
30.08.2017 13:04 24,3 C 30,0 C 26,7 C 80 % 0 lf 1006,5 hPa 0,0 l/m 2 min 0 min 768 W/m 12,6 km/h (3 Bft) 97,87 %
30.08.2017 13:06 24,4 C 29,4 C 27,2 C 79 % 0 lf 1006,5 hPa 0,0 l/m 2 min 0 min 769 W/m 10,5 km/h (2 Bft) 97,87 %
30.08.2017 13:08 24,5 C 29,4 C 27,2 C 79 % 0 lf 1006,5 hPa 0,0 l/m 2 min 0 min 770 W/m 10,5 km/h (2 Bft) 97,83 %
30.08.2017 13:10 24,6 C 29,4 C 27,2 C 79 % 0 lf 1006,5 hPa 0,0 l/m 2 min 0 min 770 W/m 12,6 km/h (3 Bft) 100,00 %
30.08.2017 13:12 24,7 C 28,9 C 27,8 C 78 % 0 lf 1006,4 hPa 0,0 l/m 2 min 0 min 771 W/m 8,4 km/h (2 Bft) 100,00 %
30.08.2017 13:14 24,7 C 27,8 C 27,2 C 78 % 0 lf 1006,6 hPa 0,0 l/m 2 min 0 min 771 W/m 14,6 km/h (3 Bft) 95,74 %
30.08.2017 13:16 24,7 C 27,2 C 27,2 C 77 % 0 lf 1006,5 hPa 0,0 l/m 2 min 0 min 772 W/m 16,7 km/h (3 Bft) 97,87 %
30.08.2017 13:18 24,8 C 27,2 C 27,2 C 76 % 0 lf 1006,5 hPa 0,0 l/m 2 min 0 min 772 W/m 23,0 km/h (4 Bft) 97,87 %
30.08.2017 13:20 24,8 C 27,2 C 27,2 C 75 % 0 lf 1006,5 hPa 0,0 l/m 2 min 0 min 773 W/m 18,8 km/h (3 Bft) 97,83 %
30.08.2017 13:22 24,9 C 27,8 C 27,2 C 75 % 0 lf 1006,5 hPa 0,0 l/m 2 min 0 min 773 W/m 12,6 km/h (3 Bft) 100,00 %
30.08.2017 13:24 25,0 C 28,9 C 27,2 C 76 % 0 lf 1006,4 hPa 0,0 l/m 2 min 0 min 773 W/m 10,5 km/h (2 Bft) 100,00 %
30.08.2017 13:26 25,1 C 28,9 C 27,2 C 76 % 0 lf 1006,4 hPa 0,0 l/m 2 min 0 min 774 W/m 18,8 km/h (3 Bft) 97,87 %
30.08.2017 13:28 25,1 C 28,3 C 27,2 C 75 % 0 lf 1006,4 hPa 0,0 l/m 2 min 0 min 774 W/m 18,8 km/h (3 Bft) 95,74 %
30.08.2017 13:30 25,1 C 27,8 C 27,2 C 74 % 0 lf 1006,4 hPa 0,0 l/m 2 min 0 min 774 W/m 16,7 km/h (3 Bft) 97,87 %
30.08.2017 13:32 25,2 C 27,2 C 26,7 C 74 % 0 lf 1006,5 hPa 0,0 l/m 2 min 0 min 903 W/m 18,8 km/h (3 Bft) 97,83 %
30.08.2017 13:34 25,2 C 26,7 C 25,6 C 74 % 0 lf 1006,6 hPa 0,0 l/m 2 min 0 min 814 W/m 14,6 km/h (3 Bft) 97,87 %
30.08.2017 13:36 25,2 C 26,1 C 25,0 C 73 % 0 lf 1006,9 hPa 0,0 l/m 2 min 0 min 766 W/m 10,5 km/h (2 Bft) 95,74 %
30.08.2017 13:38 25,2 C 25,6 C 24,4 C 73 % 0 lf 1006,9 hPa 0,0 l/m 2 min 0 min 757 W/m 8,4 km/h (2 Bft) 97,87 %
30.08.2017 13:40 25,2 C 25,6 C 23,9 C 74 % 0 lf 1007,0 hPa 0,0 l/m 2 min 0 min 756 W/m 16,7 km/h (3 Bft) 95,74 %
30.08.2017 13:42 25,1 C 25,0 C 23,9 C 74 % 0 lf 1007,0 hPa 0,0 l/m 2 min 0 min 759 W/m 10,5 km/h (2 Bft) 97,87 %
30.08.2017 13:44 25,1 C 25,0 C 23,9 C 73 % 0 lf 1007,0 hPa 0,0 l/m 2 min 0 min 782 W/m 8,4 km/h (2 Bft) 97,83 %
30.08.2017 13:46 25,1 C 25,0 C 24,4 C 73 % 0 lf 1006,9 hPa 0,0 l/m 2 min 0 min 847 W/m 8,4 km/h (2 Bft) 93,62 %
30.08.2017 13:48 25,1 C 25,6 C 25,0 C 73 % 0 lf 1006,9 hPa 0,0 l/m 2 min 0 min 922 W/m 10,5 km/h (2 Bft) 97,87 %
30.08.2017 13:50 25,0 C 26,1 C 25,6 C 74 % 0 lf 1006,8 hPa 0,0 l/m 2 min 0 min 941 W/m 10,5 km/h (2 Bft) 93,62 %
30.08.2017 13:52 25,1 C 26,7 C 26,1 C 74 % 0 lf 1006,8 hPa 0,0 l/m 2 min 0 min 954 W/m 10,5 km/h (2 Bft) 97,87 %
30.08.2017 13:54 25,1 C 26,7 C 26,7 C 73 % 0 lf 1006,7 hPa 0,0 l/m 2 min 0 min 964 W/m 10,5 km/h (2 Bft) 97,83 %
30.08.2017 13:56 25,1 C 27,2 C 26,7 C 74 % 0 lf 1006,8 hPa 0,0 l/m 2 min 0 min 941 W/m 6,3 km/h (2 Bft) 95,74 %
30.08.2017 13:58 25,1 C 27,2 C 27,2 C 74 % 0 lf 1006,8 hPa 0,0 l/m 2 min 0 min 941 W/m 6,3 km/h (2 Bft) 95,74 %
30.08.2017 14:00 25,1 C 27,2 C 26,7 C 74 % 0 lf 1006,9 hPa 0,0 l/m 2 min 0 min 923 W/m 8,4 km/h (2 Bft) 97,87 %
30.08.2017 14:02 25,1 C 27,2 C 26,7 C 74 % 0 lf 1006,9 hPa 0,0 l/m 2 min 0 min 924 W/m 8,4 km/h (2 Bft) 93,62 %
30.08.2017 14:04 25,1 C 27,2 C 26,7 C 73 % 0 lf 1006,9 hPa 0,0 l/m 2 min 0 min 934 W/m 14,6 km/h (3 Bft) 97,87 %
30.08.2017 14:06 25,1 C 27,2 C 26,7 C 73 % 0 lf 1006,9 hPa 0,0 l/m 2 min 0 min 948 W/m 12,6 km/h (3 Bft) 95,65 %
30.08.2017 14:08 25,2 C 27,8 C 27,2 C 73 % 0 lf 1006,9 hPa 0,0 l/m 2 min 0 min 954 W/m 8,4 km/h (2 Bft) 93,62 %
30.08.2017 14:10 25,2 C 27,8 C 27,2 C 73 % 0 lf 1006,9 hPa 0,0 l/m 2 min 0 min 966 W/m 8,4 km/h (2 Bft) 95,74 %
30.08.2017 14:12 25,3 C 28,3 C 27,8 C 73 % 0 lf 1007,0 hPa 0,0 l/m 2 min 0 min 1002 W/m 10,5 km/h (2 Bft) 93,62 %
30.08.2017 14:14 25,4 C 28,9 C 27,8 C 73 % 0 lf 1006,9 hPa 0,0 l/m 2 min 0 min 764 W/m 16,7 km/h (3 Bft) 95,74 %
30.08.2017 14:16 25,4 C 28,9 C 27,8 C 73 % 0 lf 1006,8 hPa 0,0 l/m 2 min 0 min 763 W/m 12,6 km/h (3 Bft) 91,49 %
30.08.2017 14:18 25,6 C 29,4 C 28,3 C 74 % 0 lf 1006,9 hPa 0,0 l/m 2 min 0 min 762 W/m 8,4 km/h (2 Bft) 93,48 %
30.08.2017 14:20 25,7 C 30,0 C 28,3 C 74 % 0 lf 1006,9 hPa 0,0 l/m 2 min 0 min 761 W/m 16,7 km/h (3 Bft) 97,87 %
30.08.2017 14:22 25,7 C 29,4 C 28,3 C 73 % 0 lf 1006,7 hPa 0,0 l/m 2 min 0 min 760 W/m 10,5 km/h (2 Bft) 95,74 %
30.08.2017 14:24 25,8 C 30,0 C 28,3 C 73 % 0 lf 1006,7 hPa 0,0 l/m 2 min 0 min 759 W/m 6,3 km/h (2 Bft) 93,62 %
30.08.2017 14:26 25,9 C 30,0 C 28,3 C 74 % 0 lf 1006,7 hPa 0,0 l/m 2 min 0 min 758 W/m 16,7 km/h (3 Bft) 95,74 %
30.08.2017 14:28 26,0 C 29,4 C 28,3 C 72 % 0 lf 1006,6 hPa 0,0 l/m 2 min 0 min 984 W/m 14,6 km/h (3 Bft) 95,74 %
30.08.2017 14:30 26,1 C 28,3 C 27,8 C 72 % 0 lf 1006,5 hPa 0,0 l/m 2 min 0 min 960 W/m 14,6 km/h (3 Bft) 95,65 %
30.08.2017 14:32 26,1 C 28,9 C 27,8 C 71 % 0 lf 1006,6 hPa 0,0 l/m 2 min 0 min 936 W/m 14,6 km/h (3 Bft) 92,68 %
30.08.2017 14:34 26,2 C 28,3 C 27,8 C 71 % 0 lf 1006,6 hPa 0,0 l/m 2 min 0 min 977 W/m 12,6 km/h (3 Bft) 91,30 %
30.08.2017 14:36 26,2 C 27,8 C 27,8 C 71 % 0 lf 1006,6 hPa 0,0 l/m 2 min 0 min 971 W/m 14,6 km/h (3 Bft) 93,62 %
30.08.2017 14:38 26,2 C 27,8 C 27,8 C 71 % 0 lf 1006,5 hPa 0,0 l/m 2 min 0 min 976 W/m 12,6 km/h (3 Bft) 91,49 %
30.08.2017 14:40 26,2 C 27,8 C 27,2 C 71 % 0 lf 1006,5 hPa 0,0 l/m 2 min 0 min 748 W/m 14,6 km/h (3 Bft) 87,23 %
30.08.2017 14:42 26,3 C 28,3 C 27,8 C 72 % 0 lf 1006,5 hPa 0,0 l/m 2 min 0 min 746 W/m 14,6 km/h (3 Bft) 89,36 %
30.08.2017 14:44 26,3 C 28,9 C 27,8 C 72 % 0 lf 1006,5 hPa 0,0 l/m 2 min 0 min 744 W/m 12,6 km/h (3 Bft) 91,49 %
30.08.2017 14:46 26,3 C 28,9 C 28,3 C 72 % 0 lf 1006,5 hPa 0,0 l/m 2 min 0 min 743 W/m 14,6 km/h (3 Bft) 91,30 %
30.08.2017 14:48 26,4 C 28,9 C 28,3 C 72 % 0 lf 1006,4 hPa 0,0 l/m 2 min 0 min 741 W/m 20,9 km/h (4 Bft) 95,74 %
30.08.2017 14:50 26,4 C 29,4 C 28,3 C 72 % 0 lf 1006,4 hPa 0,0 l/m 2 min 0 min 739 W/m 16,7 km/h (3 Bft) 97,87 %
30.08.2017 14:52 26,4 C 29,4 C 28,3 C 72 % 0 lf 1006,4 hPa 0,0 l/m 2 min 0 min 737 W/m 16,7 km/h (3 Bft) 95,74 %
30.08.2017 14:54 26,4 C 29,4 C 28,3 C 72 % 0 lf 1006,4 hPa 0,0 l/m 2 min 0 min 735 W/m 12,6 km/h (3 Bft) 95,74 %
30.08.2017 14:56 26,4 C 28,9 C 28,3 C 72 % 0 lf 1006,4 hPa 0,0 l/m 2 min 0 min 977 W/m 16,7 km/h (3 Bft) 93,48 %
30.08.2017 14:58 26,5 C 28,9 C 28,3 C 72 % 0 lf 1006,5 hPa 0,0 l/m 2 min 0 min 731 W/m 14,6 km/h (3 Bft) 89,36 %
30.08.2017 15:00 26,5 C 28,9 C 28,3 C 72 % 0 lf 1006,5 hPa 0,0 l/m 2 min 0 min 962 W/m 14,6 km/h (3 Bft) 95,74 %
30.08.2017 15:02 26,6 C 28,3 C 27,8 C 72 % 0 lf 1006,4 hPa 0,0 l/m 2 min 0 min 963 W/m 23,0 km/h (4 Bft) 95,74 %
30.08.2017 15:04 26,6 C 28,3 C 27,8 C 72 % 0 lf 1006,4 hPa 0,0 l/m 2 min 0 min 725 W/m 18,8 km/h (3 Bft) 95,74 %
30.08.2017 15:06 26,6 C 28,3 C 27,8 C 72 % 0 lf 1006,4 hPa 0,0 l/m 2 min 0 min 723 W/m 14,6 km/h (3 Bft) 95,74 %
30.08.2017 15:08 26,5 C 28,3 C 27,8 C 72 % 0 lf 1006,4 hPa 0,0 l/m 2 min 0 min 952 W/m 16,7 km/h (3 Bft) 97,83 %
30.08.2017 15:10 26,5 C 28,3 C 27,8 C 72 % 0 lf 1006,4 hPa 0,0 l/m 2 min 0 min 940 W/m 16,7 km/h (3 Bft) 97,87 %
30.08.2017 15:12 26,5 C 28,9 C 27,8 C 72 % 0 lf 1006,4 hPa 0,0 l/m 2 min 0 min 940 W/m 12,6 km/h (3 Bft) 97,87 %
30.08.2017 15:14 26,5 C 28,3 C 27,8 C 72 % 0 lf 1006,4 hPa 0,0 l/m 2 min 0 min 714 W/m 12,6 km/h (3 Bft) 95,74 %
30.08.2017 15:16 26,5 C 28,3 C 27,8 C 72 % 0 lf 1006,3 hPa 0,0 l/m 2 min 0 min 711 W/m 16,7 km/h (3 Bft) 97,87 %
30.08.2017 15:18 26,5 C 28,9 C 27,8 C 72 % 0 lf 1006,3 hPa 0,0 l/m 2 min 0 min 709 W/m 12,6 km/h (3 Bft) 97,87 %
30.08.2017 15:20 26,6 C 28,9 C 27,8 C 73 % 0 lf 1006,4 hPa 0,0 l/m 2 min 0 min 706 W/m 16,7 km/h (3 Bft) 97,83 %
30.08.2017 15:22 26,6 C 28,9 C 28,3 C 73 % 0 lf 1006,4 hPa 0,0 l/m 2 min 0 min 704 W/m 12,6 km/h (3 Bft) 100,00 %
30.08.2017 15:24 26,6 C 28,9 C 28,3 C 72 % 0 lf 1006,3 hPa 0,0 l/m 2 min 0 min 701 W/m 12,6 km/h (3 Bft) 100,00 %
30.08.2017 15:26 26,6 C 28,3 C 28,3 C 72 % 0 lf 1006,3 hPa 0,0 l/m 2 min 0 min 699 W/m 14,6 km/h (3 Bft) 100,00 %
30.08.2017 15:28 26,6 C 28,9 C 28,3 C 73 % 0 lf 1006,2 hPa 0,0 l/m 2 min 0 min 696 W/m 12,6 km/h (3 Bft) 97,87 %
30.08.2017 15:30 26,6 C 28,9 C 28,3 C 72 % 0 lf 1006,1 hPa 0,0 l/m 2 min 0 min 693 W/m 10,5 km/h (2 Bft) 93,62 %
30.08.2017 15:32 26,7 C 29,4 C 28,3 C 73 % 0 lf 1006,1 hPa 0,0 l/m 2 min 0 min 691 W/m 14,6 km/h (3 Bft) 100,00 %
30.08.2017 15:34 26,7 C 28,9 C 28,3 C 72 % 0 lf 1006,1 hPa 0,0 l/m 2 min 0 min 688 W/m 14,6 km/h (3 Bft) 100,00 %
30.08.2017 15:36 26,7 C 28,9 C 28,3 C 72 % 0 lf 1006,1 hPa 0,0 l/m 2 min 0 min 685 W/m 12,6 km/h (3 Bft) 100,00 %
30.08.2017 15:38 26,7 C 28,9 C 28,3 C 72 % 0 lf 1006,1 hPa 0,0 l/m 2 min 0 min 682 W/m 14,6 km/h (3 Bft) 100,00 %
30.08.2017 15:40 26,8 C 28,9 C 28,3 C 73 % 0 lf 1006,1 hPa 0,0 l/m 2 min 0 min 679 W/m 14,6 km/h (3 Bft) 95,74 %
30.08.2017 15:42 26,8 C 29,4 C 28,3 C 72 % 0 lf 1006,0 hPa 0,0 l/m 2 min 0 min 676 W/m 14,6 km/h (3 Bft) 100,00 %
30.08.2017 15:44 26,8 C 29,4 C 28,3 C 72 % 0 lf 1006,1 hPa 0,0 l/m 2 min 0 min 673 W/m 18,8 km/h (3 Bft) 100,00 %
30.08.2017 15:46 26,8 C 29,4 C 28,3 C 72 % 0 lf 1006,1 hPa 0,0 l/m 2 min 0 min 670 W/m 14,6 km/h (3 Bft) 97,87 %
30.08.2017 15:48 26,9 C 28,9 C 27,8 C 72 % 0 lf 1006,1 hPa 0,0 l/m 2 min 0 min 667 W/m 18,8 km/h (3 Bft) 100,00 %
30.08.2017 15:50 26,8 C 27,8 C 27,8 C 71 % 0 lf 1006,1 hPa 0,0 l/m 2 min 0 min 664 W/m 20,9 km/h (4 Bft) 100,00 %
30.08.2017 15:52 26,8 C 28,3 C 27,8 C 71 % 0 lf 1006,0 hPa 0,0 l/m 2 min 0 min 661 W/m 14,6 km/h (3 Bft) 100,00 %
30.08.2017 15:54 26,8 C 28,3 C 27,8 C 72 % 0 lf 1006,0 hPa 0,0 l/m 2 min 0 min 657 W/m 16,7 km/h (3 Bft) 100,00 %
30.08.2017 15:56 26,8 C 28,3 C 27,8 C 71 % 0 lf 1006,0 hPa 0,0 l/m 2 min 0 min 654 W/m 14,6 km/h (3 Bft) 97,83 %
30.08.2017 15:58 26,8 C 27,8 C 27,2 C 72 % 0 lf 1005,9 hPa 0,0 l/m 2 min 0 min 859 W/m 12,6 km/h (3 Bft) 100,00 %
30.08.2017 16:00 26,8 C 27,8 C 27,2 C 72 % 0 lf 1005,8 hPa 0,0 l/m 2 min 0 min 648 W/m 20,9 km/h (4 Bft) 100,00 %
30.08.2017 16:02 26,7 C 27,8 C 27,2 C 71 % 0 lf 1005,7 hPa 0,0 l/m 2 min 0 min 644 W/m 10,5 km/h (2 Bft) 100,00 %
30.08.2017 16:04 26,7 C 27,8 C 27,8 C 71 % 0 lf 1005,7 hPa 0,0 l/m 2 min 0 min 641 W/m 12,6 km/h (3 Bft) 100,00 %
30.08.2017 16:06 26,7 C 27,8 C 27,2 C 72 % 0 lf 1005,7 hPa 0,0 l/m 2 min 0 min 637 W/m 12,6 km/h (3 Bft) 97,87 %
30.08.2017 16:08 26,7 C 27,8 C 27,2 C 71 % 0 lf 1005,7 hPa 0,0 l/m 2 min 0 min 634 W/m 18,8 km/h (3 Bft) 97,83 %
30.08.2017 16:10 26,7 C 27,2 C 27,2 C 71 % 0 lf 1005,7 hPa 0,0 l/m 2 min 0 min 630 W/m 16,7 km/h (3 Bft) 100,00 %
30.08.2017 16:12 26,6 C 27,8 C 27,2 C 71 % 0 lf 1005,6 hPa 0,0 l/m 2 min 0 min 627 W/m 16,7 km/h (3 Bft) 100,00 %
30.08.2017 16:14 26,6 C 27,8 C 27,2 C 71 % 0 lf 1005,6 hPa 0,0 l/m 2 min 0 min 623 W/m 14,6 km/h (3 Bft) 97,87 %
30.08.2017 16:16 26,6 C 27,8 C 27,2 C 71 % 0 lf 1005,6 hPa 0,0 l/m 2 min 0 min 619 W/m 12,6 km/h (3 Bft) 100,00 %
30.08.2017 16:18 26,6 C 27,8 C 27,2 C 71 % 0 lf 1005,6 hPa 0,0 l/m 2 min 0 min 616 W/m 10,5 km/h (2 Bft) 100,00 %
30.08.2017 16:20 26,6 C 27,8 C 27,2 C 71 % 0 lf 1005,6 hPa 0,0 l/m 2 min 0 min 612 W/m 6,3 km/h (2 Bft) 97,83 %
30.08.2017 16:22 26,6 C 27,2 C 27,2 C 72 % 0 lf 1005,6 hPa 0,0 l/m 2 min 0 min 797 W/m 8,4 km/h (2 Bft) 95,74 %
30.08.2017 16:24 26,6 C 27,2 C 27,2 C 72 % 0 lf 1005,5 hPa 0,0 l/m 2 min 0 min 512 W/m 6,3 km/h (2 Bft) 100,00 %
30.08.2017 16:26 26,6 C 27,8 C 27,2 C 72 % 0 lf 1005,5 hPa 0,0 l/m 2 min 0 min 301 W/m 8,4 km/h (2 Bft) 100,00 %
30.08.2017 16:28 26,6 C 27,2 C 26,7 C 72 % 0 lf 1005,5 hPa 0,0 l/m 0 min 0 min 200 W/m 10,5 km/h (2 Bft) 100,00 %
30.08.2017 16:30 26,6 C 27,2 C 26,7 C 71 % 0 lf 1005,6 hPa 0,0 l/m 0 min 0 min 200 W/m 12,6 km/h (3 Bft) 100,00 %
30.08.2017 16:32 26,6 C 26,7 C 26,7 C 71 % 0 lf 1005,7 hPa 0,0 l/m 0 min 0 min 198 W/m 14,6 km/h (3 Bft) 95,74 %
30.08.2017 16:34 26,5 C 26,7 C 26,7 C 71 % 0 lf 1005,6 hPa 0,0 l/m 0 min 0 min 201 W/m 10,5 km/h (2 Bft) 100,00 %
30.08.2017 16:36 26,5 C 27,2 C 26,7 C 72 % 0 lf 1005,6 hPa 0,0 l/m 0 min 0 min 203 W/m 8,4 km/h (2 Bft) 93,62 %
30.08.2017 16:38 26,5 C 27,2 C 27,2 C 72 % 0 lf 1005,6 hPa 0,0 l/m 0 min 0 min 203 W/m 8,4 km/h (2 Bft) 95,74 %
30.08.2017 16:40 26,5 C 27,8 C 27,2 C 72 % 0 lf 1005,6 hPa 0,0 l/m 0 min 0 min 199 W/m 8,4 km/h (2 Bft) 91,49 %
30.08.2017 16:42 26,5 C 27,2 C 27,2 C 72 % 0 lf 1005,6 hPa 0,0 l/m 0 min 0 min 204 W/m 18,8 km/h (3 Bft) 93,48 %
30.08.2017 16:44 26,4 C 27,2 C 27,2 C 72 % 0 lf 1005,6 hPa 0,0 l/m 0 min 0 min 201 W/m 18,8 km/h (3 Bft) 95,74 %
30.08.2017 16:46 26,4 C 27,2 C 27,2 C 72 % 0 lf 1005,7 hPa 0,0 l/m 0 min 0 min 191 W/m 14,6 km/h (3 Bft) 93,62 %
30.08.2017 16:48 26,4 C 27,2 C 26,7 C 72 % 0 lf 1005,7 hPa 0,0 l/m 0 min 0 min 188 W/m 12,6 km/h (3 Bft) 93,62 %
30.08.2017 16:50 26,4 C 27,2 C 26,7 C 72 % 0 lf 1005,6 hPa 0,0 l/m 0 min 0 min 190 W/m 14,6 km/h (3 Bft) 93,62 %
30.08.2017 16:52 26,4 C 26,7 C 26,1 C 72 % 0 lf 1005,7 hPa 0,0 l/m 0 min 0 min 181 W/m 14,6 km/h (3 Bft) 93,62 %
30.08.2017 16:54 26,4 C 26,7 C 26,1 C 71 % 0 lf 1005,7 hPa 0,0 l/m 0 min 0 min 175 W/m 18,8 km/h (3 Bft) 93,48 %
30.08.2017 16:56 26,3 C 26,7 C 25,6 C 72 % 0 lf 1005,7 hPa 0,0 l/m 0 min 0 min 168 W/m 12,6 km/h (3 Bft) 89,36 %
30.08.2017 16:58 26,3 C 26,1 C 25,6 C 72 % 0 lf 1005,7 hPa 0,0 l/m 0 min 0 min 171 W/m 10,5 km/h (2 Bft) 91,49 %
30.08.2017 17:00 26,3 C 26,1 C 25,6 C 72 % 0 lf 1005,7 hPa 0,0 l/m 0 min 0 min 169 W/m 12,6 km/h (3 Bft) 93,62 %
30.08.2017 17:02 26,2 C 26,1 C 25,6 C 72 % 0 lf 1005,7 hPa 0,0 l/m 0 min 0 min 167 W/m 16,7 km/h (3 Bft) 90,74 %
30.08.2017 17:04 26,2 C 26,1 C 25,0 C 72 % 0 lf 1005,6 hPa 0,0 l/m 0 min 0 min 169 W/m 12,6 km/h (3 Bft) 93,62 %
30.08.2017 17:06 26,2 C 26,1 C 25,0 C 73 % 0 lf 1005,6 hPa 0,0 l/m 0 min 0 min 167 W/m 14,6 km/h (3 Bft) 93,62 %
30.08.2017 17:08 26,1 C 26,1 C 25,0 C 73 % 0 lf 1005,6 hPa 0,0 l/m 0 min 0 min 164 W/m 14,6 km/h (3 Bft) 93,62 %
30.08.2017 17:10 26,1 C 26,1 C 25,0 C 73 % 0 lf 1005,6 hPa 0,0 l/m 0 min 0 min 166 W/m 12,6 km/h (3 Bft) 93,62 %
30.08.2017 17:12 26,0 C 25,6 C 24,4 C 73 % 0 lf 1005,6 hPa 0,0 l/m 0 min 0 min 170 W/m 10,5 km/h (2 Bft) 93,62 %
30.08.2017 17:14 26,0 C 25,6 C 24,4 C 74 % 0 lf 1005,7 hPa 0,0 l/m 0 min 0 min 164 W/m 12,6 km/h (3 Bft) 95,65 %
30.08.2017 17:16 25,9 C 25,6 C 24,4 C 74 % 0 lf 1005,7 hPa 0,0 l/m 0 min 0 min 167 W/m 12,6 km/h (3 Bft) 91,49 %
30.08.2017 17:18 25,9 C 25,6 C 24,4 C 74 % 4 lf 1005,7 hPa 0,0 l/m 0 min 0 min 161 W/m 10,5 km/h (2 Bft) 97,87 %
30.08.2017 17:20 25,8 C 25,6 C 24,4 C 74 % 0 lf 1005,7 hPa 0,0 l/m 0 min 0 min 157 W/m 10,5 km/h (2 Bft) 97,87 %
30.08.2017 17:22 25,8 C 25,6 C 24,4 C 75 % 2 lf 1005,7 hPa 0,0 l/m 0 min 0 min 159 W/m 10,5 km/h (2 Bft) 97,87 %
30.08.2017 17:24 25,7 C 25,6 C 24,4 C 75 % 0 lf 1005,7 hPa 0,0 l/m 0 min 2 min 156 W/m 18,8 km/h (3 Bft) 97,87 %
30.08.2017 17:26 25,7 C 25,0 C 24,4 C 75 % 0 lf 1005,7 hPa 0,0 l/m 0 min 0 min 156 W/m 14,6 km/h (3 Bft) 97,83 %
30.08.2017 17:28 25,7 C 25,0 C 23,9 C 75 % 14 lf 1005,7 hPa 0,0 l/m 0 min 0 min 154 W/m 14,6 km/h (3 Bft) 97,87 %
30.08.2017 17:30 25,6 C 24,4 C 23,3 C 76 % 12 lf 1005,6 hPa 0,0 l/m 0 min 2 min 154 W/m 10,5 km/h (2 Bft) 95,74 %
30.08.2017 17:32 25,6 C 24,4 C 22,8 C 76 % 4 lf 1005,6 hPa 0,0 l/m 0 min 2 min 155 W/m 8,4 km/h (2 Bft) 97,87 %
30.08.2017 17:34 25,6 C 24,4 C 22,8 C 77 % 0 lf 1005,7 hPa 0,0 l/m 0 min 0 min 147 W/m 10,5 km/h (2 Bft) 95,74 %
30.08.2017 17:36 25,6 C 24,4 C 22,8 C 77 % 0 lf 1005,6 hPa 0,0 l/m 0 min 0 min 102 W/m 12,6 km/h (3 Bft) 95,74 %
30.08.2017 17:38 25,5 C 24,4 C 23,3 C 77 % 0 lf 1005,6 hPa 0,0 l/m 0 min 0 min 97 W/m 8,4 km/h (2 Bft) 100,00 %
30.08.2017 17:40 25,4 C 25,0 C 23,3 C 77 % 0 lf 1005,5 hPa 0,0 l/m 0 min 0 min 99 W/m 8,4 km/h (2 Bft) 97,87 %
30.08.2017 17:42 25,4 C 24,4 C 23,3 C 77 % 2 lf 1005,5 hPa 0,0 l/m 0 min 0 min 97 W/m 12,6 km/h (3 Bft) 97,87 %
30.08.2017 17:44 25,3 C 24,4 C 23,3 C 77 % 0 lf 1005,6 hPa 0,0 l/m 0 min 0 min 98 W/m 8,4 km/h (2 Bft) 97,87 %
30.08.2017 17:46 25,3 C 24,4 C 23,3 C 77 % 2 lf 1005,5 hPa 0,0 l/m 0 min 0 min 101 W/m 8,4 km/h (2 Bft) 97,87 %
30.08.2017 17:48 25,2 C 25,0 C 23,3 C 77 % 2 lf 1005,4 hPa 0,0 l/m 0 min 2 min 102 W/m 8,4 km/h (2 Bft) 97,83 %
30.08.2017 17:50 25,2 C 25,0 C 23,3 C 77 % 4 lf 1005,4 hPa 0,0 l/m 0 min 2 min 102 W/m 10,5 km/h (2 Bft) 95,74 %
30.08.2017 17:52 25,2 C 25,0 C 23,3 C 78 % 2 lf 1005,4 hPa 0,0 l/m 0 min 2 min 104 W/m 4,2 km/h (1 Bft) 97,87 %
30.08.2017 17:54 25,2 C 25,0 C 23,3 C 78 % 3 lf 1005,4 hPa 0,0 l/m 0 min 2 min 107 W/m 10,5 km/h (2 Bft) 95,74 %
30.08.2017 17:56 25,2 C 25,0 C 23,3 C 78 % 0 lf 1005,3 hPa 0,0 l/m 0 min 2 min 108 W/m 8,4 km/h (2 Bft) 97,87 %
30.08.2017 17:58 25,1 C 25,0 C 23,3 C 79 % 1 lf 1005,4 hPa 0,0 l/m 0 min 0 min 105 W/m 8,4 km/h (2 Bft) 95,74 %
30.08.2017 18:00 25,1 C 25,0 C 23,3 C 79 % 0 lf 1005,4 hPa 0,0 l/m 0 min 0 min 96 W/m 6,3 km/h (2 Bft) 97,83 %
30.08.2017 18:02 25,1 C 25,0 C 23,3 C 79 % 0 lf 1005,4 hPa 0,0 l/m 0 min 0 min 98 W/m 6,3 km/h (2 Bft) 95,74 %
30.08.2017 18:04 25,1 C 25,0 C 23,3 C 79 % 0 lf 1005,4 hPa 0,0 l/m 0 min 0 min 97 W/m 10,5 km/h (2 Bft) 97,87 %
30.08.2017 18:06 25,1 C 25,0 C 23,3 C 79 % 0 lf 1005,4 hPa 0,0 l/m 0 min 0 min 98 W/m 12,6 km/h (3 Bft) 95,74 %
30.08.2017 18:10 25,1 C 25,0 C 23,3 C 79 % 0 lf 1005,4 hPa 0,0 l/m 0 min 0 min 100 W/m 12,6 km/h (3 Bft) 95,83 %
30.08.2017 18:12 25,0 C 25,0 C 23,9 C 79 % 0 lf 1005,4 hPa 0,0 l/m 0 min 0 min 97 W/m 10,5 km/h (2 Bft) 95,65 %
30.08.2017 18:14 25,0 C 25,0 C 23,9 C 79 % 0 lf 1005,4 hPa 0,0 l/m 0 min 0 min 97 W/m 6,3 km/h (2 Bft) 97,87 %
30.08.2017 18:16 24,9 C 25,0 C 23,3 C 79 % 0 lf 1005,3 hPa 0,0 l/m 0 min 0 min 93 W/m 8,4 km/h (2 Bft) 95,74 %
30.08.2017 18:18 24,9 C 24,4 C 23,3 C 80 % 0 lf 1005,3 hPa 0,0 l/m 0 min 0 min 87 W/m 8,4 km/h (2 Bft) 95,74 %
30.08.2017 18:20 24,9 C 24,4 C 23,3 C 79 % 0 lf 1005,3 hPa 0,0 l/m 0 min 0 min 92 W/m 8,4 km/h (2 Bft) 97,87 %
30.08.2017 18:22 24,9 C 24,4 C 23,3 C 80 % 0 lf 1005,3 hPa 0,0 l/m 0 min 0 min 97 W/m 8,4 km/h (2 Bft) 91,49 %
30.08.2017 18:24 24,8 C 24,4 C 23,3 C 80 % 0 lf 1005,2 hPa 0,0 l/m 0 min 0 min 99 W/m 8,4 km/h (2 Bft) 97,83 %
30.08.2017 18:26 24,8 C 25,0 C 23,9 C 80 % 0 lf 1005,2 hPa 0,0 l/m 0 min 0 min 99 W/m 6,3 km/h (2 Bft) 95,74 %
30.08.2017 18:28 24,8 C 25,0 C 23,9 C 79 % 0 lf 1005,2 hPa 0,0 l/m 0 min 0 min 102 W/m 4,2 km/h (1 Bft) 95,74 %
30.08.2017 18:30 24,7 C 25,0 C 23,9 C 79 % 0 lf 1005,2 hPa 0,0 l/m 0 min 0 min 98 W/m 6,3 km/h (2 Bft) 95,74 %
30.08.2017 18:32 24,7 C 25,0 C 23,9 C 80 % 0 lf 1005,2 hPa 0,0 l/m 0 min 0 min 97 W/m 6,3 km/h (2 Bft) 97,87 %
30.08.2017 18:34 24,7 C 25,0 C 23,9 C 80 % 0 lf 1005,1 hPa 0,0 l/m 0 min 0 min 108 W/m 4,2 km/h (1 Bft) 97,87 %
30.08.2017 18:36 24,7 C 25,0 C 23,9 C 80 % 0 lf 1005,1 hPa 0,0 l/m 0 min 0 min 106 W/m 4,2 km/h (1 Bft) 100,00 %
30.08.2017 18:38 24,7 C 25,0 C 23,9 C 80 % 0 lf 1005,0 hPa 0,0 l/m 0 min 0 min 103 W/m 4,2 km/h (1 Bft) 91,49 %
30.08.2017 18:40 24,7 C 25,0 C 24,4 C 80 % 0 lf 1005,0 hPa 0,0 l/m 0 min 0 min 103 W/m 4,2 km/h (1 Bft) 95,74 %
30.08.2017 18:42 24,8 C 25,0 C 23,9 C 81 % 0 lf 1005,0 hPa 0,0 l/m 0 min 0 min 102 W/m 10,5 km/h (2 Bft) 97,87 %
30.08.2017 18:44 24,7 C 25,0 C 23,9 C 81 % 0 lf 1005,0 hPa 0,0 l/m 0 min 0 min 102 W/m 8,4 km/h (2 Bft) 95,74 %
30.08.2017 18:46 24,7 C 24,4 C 23,9 C 80 % 0 lf 1005,0 hPa 0,0 l/m 0 min 0 min 103 W/m 8,4 km/h (2 Bft) 97,83 %
30.08.2017 18:48 24,7 C 25,0 C 23,9 C 80 % 0 lf 1004,9 hPa 0,0 l/m 0 min 0 min 102 W/m 6,3 km/h (2 Bft) 100,00 %
30.08.2017 18:50 24,7 C 25,0 C 23,9 C 80 % 0 lf 1004,9 hPa 0,0 l/m 0 min 0 min 104 W/m 6,3 km/h (2 Bft) 95,74 %
30.08.2017 18:52 24,7 C 24,4 C 23,9 C 80 % 0 lf 1004,8 hPa 0,0 l/m 0 min 0 min 108 W/m 2,1 km/h (1 Bft) 97,87 %
30.08.2017 18:54 24,7 C 24,4 C 23,9 C 80 % 0 lf 1004,8 hPa 0,0 l/m 0 min 0 min 105 W/m 4,2 km/h (1 Bft) 93,62 %
30.08.2017 18:56 24,7 C 24,4 C 23,3 C 80 % 0 lf 1004,7 hPa 0,0 l/m 0 min 0 min 100 W/m 4,2 km/h (1 Bft) 93,62 %
30.08.2017 18:58 24,7 C 24,4 C 23,3 C 80 % 0 lf 1004,8 hPa 0,0 l/m 2 min 0 min 108 W/m 2,1 km/h (1 Bft) 97,83 %
30.08.2017 19:00 24,7 C 24,4 C 23,3 C 80 % 0 lf 1004,8 hPa 0,0 l/m 0 min 0 min 75 W/m 0,0 km/h (0 Bft) 97,87 %
30.08.2017 19:02 24,7 C 24,4 C 23,3 C 80 % 0 lf 1004,8 hPa 0,0 l/m 0 min 0 min 29 W/m 0,0 km/h (0 Bft) 97,87 %
30.08.2017 19:04 24,7 C 24,4 C 23,3 C 80 % 0 lf 1004,8 hPa 0,0 l/m 0 min 0 min 24 W/m 0,0 km/h (0 Bft) 95,74 %
30.08.2017 19:06 24,7 C 24,4 C 23,3 C 81 % 0 lf 1004,8 hPa 0,0 l/m 0 min 0 min 13 W/m 4,2 km/h (1 Bft) 97,87 %
30.08.2017 19:08 24,6 C 24,4 C 23,3 C 81 % 0 lf 1004,9 hPa 0,0 l/m 0 min 0 min 13 W/m 6,3 km/h (2 Bft) 97,87 %
30.08.2017 19:10 24,6 C 24,4 C 22,8 C 81 % 0 lf 1004,9 hPa 0,0 l/m 0 min 0 min 14 W/m 6,3 km/h (2 Bft) 95,65 %
30.08.2017 19:12 24,6 C 23,9 C 22,8 C 81 % 0 lf 1004,9 hPa 0,0 l/m 0 min 0 min 14 W/m 8,4 km/h (2 Bft) 93,62 %
30.08.2017 19:14 24,6 C 23,9 C 22,8 C 81 % 0 lf 1004,9 hPa 0,0 l/m 0 min 0 min 14 W/m 4,2 km/h (1 Bft) 95,74 %
30.08.2017 19:16 24,6 C 23,9 C 22,8 C 81 % 0 lf 1004,9 hPa 0,0 l/m 0 min 0 min 14 W/m 8,4 km/h (2 Bft) 95,74 %
30.08.2017 19:18 24,5 C 23,9 C 22,8 C 81 % 0 lf 1004,9 hPa 0,0 l/m 0 min 0 min 15 W/m 6,3 km/h (2 Bft) 97,87 %
30.08.2017 19:20 24,5 C 23,9 C 22,8 C 81 % 0 lf 1004,8 hPa 0,0 l/m 0 min 0 min 14 W/m 6,3 km/h (2 Bft) 95,74 %
30.08.2017 19:22 24,4 C 23,9 C 22,8 C 81 % 0 lf 1004,8 hPa 0,0 l/m 0 min 0 min 14 W/m 6,3 km/h (2 Bft) 97,83 %
30.08.2017 19:24 24,4 C 23,9 C 22,8 C 81 % 0 lf 1004,8 hPa 0,0 l/m 0 min 0 min 14 W/m 6,3 km/h (2 Bft) 97,96 %
30.08.2017 19:26 24,3 C 23,3 C 22,8 C 81 % 0 lf 1004,7 hPa 0,0 l/m 0 min 0 min 14 W/m 6,3 km/h (2 Bft) 97,87 %
30.08.2017 19:28 24,3 C 23,3 C 22,2 C 82 % 0 lf 1004,7 hPa 0,0 l/m 0 min 0 min 13 W/m 4,2 km/h (1 Bft) 95,74 %
30.08.2017 19:30 24,3 C 23,3 C 22,2 C 82 % 0 lf 1004,8 hPa 0,0 l/m 0 min 0 min 14 W/m 8,4 km/h (2 Bft) 89,36 %
30.08.2017 19:32 24,2 C 23,3 C 22,2 C 82 % 0 lf 1004,8 hPa 0,0 l/m 0 min 0 min 10 W/m 6,3 km/h (2 Bft) 95,74 %
30.08.2017 19:34 24,2 C 23,3 C 22,2 C 82 % 0 lf 1004,8 hPa 0,0 l/m 0 min 0 min 1 W/m 6,3 km/h (2 Bft) 97,83 %
30.08.2017 19:36 24,2 C 23,3 C 22,2 C 82 % 0 lf 1004,7 hPa 0,0 l/m 0 min 0 min 1 W/m 4,2 km/h (1 Bft) 91,49 %
30.08.2017 19:38 24,2 C 23,3 C 22,2 C 82 % 0 lf 1004,7 hPa 0,0 l/m 0 min 0 min 26 W/m 0,0 km/h (0 Bft) 97,87 %
30.08.2017 19:40 24,1 C 23,3 C 22,2 C 82 % 0 lf 1004,8 hPa 0,0 l/m 0 min 0 min 36 W/m 4,2 km/h (1 Bft) 97,87 %
30.08.2017 19:42 24,1 C 23,3 C 22,2 C 82 % 0 lf 1004,8 hPa 0,0 l/m 0 min 0 min 35 W/m 4,2 km/h (1 Bft) 95,74 %
30.08.2017 19:44 24,1 C 23,3 C 22,2 C 82 % 0 lf 1004,8 hPa 0,0 l/m 0 min 0 min 33 W/m 4,2 km/h (1 Bft) 97,87 %
30.08.2017 19:46 24,1 C 23,3 C 21,7 C 82 % 0 lf 1004,9 hPa 0,0 l/m 0 min 0 min 32 W/m 2,1 km/h (1 Bft) 91,30 %
30.08.2017 19:48 24,1 C 23,3 C 21,7 C 82 % 0 lf 1004,8 hPa 0,0 l/m 0 min 0 min 30 W/m 6,3 km/h (2 Bft) 95,74 %
30.08.2017 19:50 24,0 C 23,3 C 21,7 C 82 % 0 lf 1004,8 hPa 0,0 l/m 0 min 0 min 28 W/m 2,1 km/h (1 Bft) 95,74 %
30.08.2017 19:52 24,0 C 22,8 C 21,7 C 82 % 0 lf 1004,8 hPa 0,0 l/m 0 min 0 min 27 W/m 2,1 km/h (1 Bft) 97,87 %
30.08.2017 19:54 23,9 C 22,8 C 21,7 C 82 % 0 lf 1004,8 hPa 0,0 l/m 0 min 0 min 26 W/m 0,0 km/h (0 Bft) 95,74 %
30.08.2017 19:56 23,9 C 22,8 C 21,7 C 82 % 0 lf 1004,9 hPa 0,0 l/m 0 min 0 min 25 W/m 2,1 km/h (1 Bft) 97,87 %
30.08.2017 19:58 23,9 C 22,8 C 21,7 C 82 % 0 lf 1004,9 hPa 0,0 l/m 0 min 0 min 24 W/m 4,2 km/h (1 Bft) 97,83 %
30.08.2017 20:00 23,9 C 22,8 C 21,7 C 82 % 0 lf 1005,1 hPa 0,0 l/m 0 min 0 min 23 W/m 4,2 km/h (1 Bft) 95,74 %
30.08.2017 20:02 23,8 C 22,8 C 21,7 C 82 % 0 lf 1005,1 hPa 0,0 l/m 2 min 0 min 23 W/m 4,2 km/h (1 Bft) 93,62 %
30.08.2017 20:04 23,8 C 22,8 C 21,1 C 83 % 0 lf 1005,1 hPa 0,0 l/m 2 min 0 min 22 W/m 2,1 km/h (1 Bft) 95,74 %
30.08.2017 20:06 23,8 C 22,8 C 21,1 C 83 % 0 lf 1005,0 hPa 0,0 l/m 2 min 0 min 21 W/m 4,2 km/h (1 Bft) 97,87 %
30.08.2017 20:08 23,8 C 22,8 C 21,1 C 83 % 0 lf 1005,1 hPa 0,0 l/m 0 min 0 min 19 W/m 6,3 km/h (2 Bft) 97,87 %
30.08.2017 20:10 23,7 C 22,2 C 21,1 C 83 % 0 lf 1005,1 hPa 0,0 l/m 0 min 0 min 17 W/m 2,1 km/h (1 Bft) 95,65 %
30.08.2017 20:12 23,7 C 22,2 C 21,1 C 83 % 0 lf 1005,1 hPa 0,0 l/m 0 min 0 min 13 W/m 2,1 km/h (1 Bft) 97,87 %
30.08.2017 20:14 23,7 C 22,2 C 21,1 C 83 % 0 lf 1005,2 hPa 0,0 l/m 0 min 0 min 12 W/m 4,2 km/h (1 Bft) 97,87 %
30.08.2017 20:16 23,6 C 22,2 C 21,1 C 83 % 0 lf 1005,1 hPa 0,0 l/m 0 min 0 min 11 W/m 2,1 km/h (1 Bft) 93,62 %
30.08.2017 20:18 23,6 C 22,2 C 21,1 C 83 % 0 lf 1005,2 hPa 0,0 l/m 0 min 0 min 8 W/m 4,2 km/h (1 Bft) 97,87 %
30.08.2017 20:20 23,6 C 22,2 C 21,1 C 84 % 0 lf 1005,3 hPa 0,0 l/m 0 min 0 min 5 W/m 4,2 km/h (1 Bft) 97,87 %
30.08.2017 20:22 23,6 C 22,2 C 21,1 C 84 % 0 lf 1005,4 hPa 0,0 l/m 0 min 0 min 4 W/m 6,3 km/h (2 Bft) 97,83 %
30.08.2017 20:24 23,5 C 22,2 C 21,1 C 84 % 0 lf 1005,5 hPa 0,0 l/m 0 min 0 min 0 W/m 6,3 km/h (2 Bft) 97,87 %
30.08.2017 20:26 23,4 C 22,2 C 21,1 C 84 % 0 lf 1005,6 hPa 0,0 l/m 0 min 0 min 0 W/m 14,6 km/h (3 Bft) 97,87 %
30.08.2017 20:28 23,4 C 22,2 C 21,1 C 85 % 0 lf 1005,9 hPa 0,0 l/m 0 min 0 min 0 W/m 29,3 km/h (5 Bft) 97,87 %
30.08.2017 20:30 23,2 C 21,7 C 21,1 C 83 % 0 lf 1005,8 hPa 0,0 l/m 0 min 0 min 0 W/m 39,7 km/h (6 Bft) 95,74 %
30.08.2017 20:32 23,1 C 21,7 C 20,6 C 82 % 0 lf 1005,9 hPa 0,0 l/m 0 min 0 min 0 W/m 31,4 km/h (5 Bft) 93,62 %
30.08.2017 20:34 22,8 C 21,1 C 20,6 C 81 % 0 lf 1005,9 hPa 0,0 l/m 0 min 0 min 0 W/m 27,2 km/h (4 Bft) 97,83 %
30.08.2017 20:36 22,6 C 21,1 C 20,0 C 81 % 0 lf 1006,2 hPa 0,0 l/m 0 min 0 min 0 W/m 25,1 km/h (4 Bft) 95,74 %
30.08.2017 20:38 22,5 C 21,1 C 20,0 C 81 % 0 lf 1006,3 hPa 0,0 l/m 0 min 0 min 0 W/m 23,0 km/h (4 Bft) 97,87 %
30.08.2017 20:40 22,3 C 21,1 C 20,0 C 81 % 0 lf 1006,3 hPa 0,0 l/m 0 min 0 min 0 W/m 23,0 km/h (4 Bft) 95,74 %
30.08.2017 20:42 22,2 C 20,6 C 20,0 C 82 % 0 lf 1006,4 hPa 0,0 l/m 0 min 0 min 0 W/m 18,8 km/h (3 Bft) 95,74 %
30.08.2017 20:44 22,1 C 20,6 C 20,0 C 82 % 0 lf 1006,3 hPa 0,0 l/m 0 min 0 min 0 W/m 20,9 km/h (4 Bft) 93,48 %
30.08.2017 20:46 21,9 C 20,6 C 19,4 C 82 % 0 lf 1006,4 hPa 0,0 l/m 0 min 0 min 0 W/m 16,7 km/h (3 Bft) 95,74 %
30.08.2017 20:48 21,8 C 20,6 C 19,4 C 83 % 0 lf 1006,4 hPa 0,0 l/m 0 min 0 min 0 W/m 16,7 km/h (3 Bft) 91,49 %
30.08.2017 20:50 21,7 C 20,6 C 19,4 C 83 % 0 lf 1006,3 hPa 0,0 l/m 0 min 0 min 0 W/m 23,0 km/h (4 Bft) 97,87 %
30.08.2017 20:52 21,7 C 20,0 C 19,4 C 83 % 0 lf 1006,3 hPa 0,0 l/m 0 min 0 min 0 W/m 14,6 km/h (3 Bft) 97,87 %
30.08.2017 20:54 21,6 C 20,0 C 19,4 C 84 % 0 lf 1006,1 hPa 0,0 l/m 0 min 0 min 0 W/m 23,0 km/h (4 Bft) 95,74 %
30.08.2017 20:56 21,5 C 20,0 C 19,4 C 84 % 0 lf 1006,0 hPa 0,0 l/m 0 min 0 min 0 W/m 16,7 km/h (3 Bft) 95,65 %
30.08.2017 20:58 21,4 C 20,0 C 19,4 C 84 % 0 lf 1006,0 hPa 0,0 l/m 0 min 0 min 0 W/m 12,6 km/h (3 Bft) 93,62 %
30.08.2017 21:00 21,3 C 20,0 C 19,4 C 85 % 0 lf 1006,1 hPa 0,0 l/m 0 min 0 min 0 W/m 16,7 km/h (3 Bft) 93,62 %
30.08.2017 21:02 21,2 C 20,0 C 18,9 C 85 % 2 lf 1006,2 hPa 0,0 l/m 0 min 0 min 0 W/m 18,8 km/h (3 Bft) 95,74 %
30.08.2017 21:04 21,2 C 19,4 C 18,9 C 85 % 15 lf 1006,1 hPa 0,0 l/m 0 min 2 min 0 W/m 14,6 km/h (3 Bft) 95,74 %
30.08.2017 21:06 21,1 C 18,9 C 18,3 C 86 % 15 lf 1006,1 hPa 0,2 l/m 0 min 2 min 0 W/m 12,6 km/h (3 Bft) 95,74 %
30.08.2017 21:08 21,1 C 18,9 C 17,8 C 86 % 15 lf 1006,2 hPa 0,0 l/m 0 min 2 min 0 W/m 6,3 km/h (2 Bft) 95,65 %
30.08.2017 21:10 21,0 C 18,9 C 17,8 C 86 % 15 lf 1006,3 hPa 0,0 l/m 0 min 2 min 0 W/m 10,5 km/h (2 Bft) 93,62 %
30.08.2017 21:12 21,0 C 18,9 C 17,8 C 87 % 15 lf 1006,2 hPa 0,0 l/m 0 min 2 min 0 W/m 4,2 km/h (1 Bft) 95,74 %
30.08.2017 21:14 20,9 C 18,9 C 17,8 C 87 % 15 lf 1006,2 hPa 0,0 l/m 0 min 0 min 0 W/m 10,5 km/h (2 Bft) 97,87 %
30.08.2017 21:16 20,9 C 18,9 C 17,8 C 88 % 15 lf 1006,4 hPa 0,0 l/m 0 min 0 min 0 W/m 10,5 km/h (2 Bft) 95,74 %
30.08.2017 21:18 20,8 C 18,9 C 17,8 C 88 % 15 lf 1006,4 hPa 0,0 l/m 0 min 0 min 0 W/m 16,7 km/h (3 Bft) 95,74 %
30.08.2017 21:20 20,7 C 18,9 C 17,8 C 88 % 15 lf 1006,6 hPa 0,0 l/m 0 min 0 min 0 W/m 20,9 km/h (4 Bft) 97,83 %
30.08.2017 21:22 20,6 C 18,9 C 17,8 C 88 % 15 lf 1007,0 hPa 0,0 l/m 0 min 2 min 0 W/m 14,6 km/h (3 Bft) 95,74 %
30.08.2017 21:24 20,6 C 18,3 C 17,8 C 89 % 15 lf 1007,0 hPa 0,2 l/m 0 min 2 min 0 W/m 18,8 km/h (3 Bft) 97,87 %
30.08.2017 21:26 20,5 C 18,3 C 17,8 C 89 % 15 lf 1006,7 hPa 0,4 l/m 0 min 2 min 0 W/m 16,7 km/h (3 Bft) 97,87 %
30.08.2017 21:28 20,4 C 18,3 C 17,8 C 89 % 15 lf 1006,6 hPa 0,2 l/m 0 min 2 min 0 W/m 10,5 km/h (2 Bft) 95,74 %
30.08.2017 21:30 20,4 C 18,3 C 17,8 C 90 % 15 lf 1006,6 hPa 0,2 l/m 0 min 2 min 0 W/m 12,6 km/h (3 Bft) 95,74 %
30.08.2017 21:32 20,3 C 18,3 C 17,2 C 90 % 15 lf 1006,5 hPa 0,2 l/m 0 min 2 min 0 W/m 16,7 km/h (3 Bft) 97,83 %
30.08.2017 21:34 20,2 C 18,3 C 17,2 C 90 % 15 lf 1006,6 hPa 0,2 l/m 0 min 2 min 0 W/m 18,8 km/h (3 Bft) 97,87 %
30.08.2017 21:36 20,2 C 18,3 C 17,2 C 90 % 15 lf 1006,5 hPa 0,2 l/m 0 min 2 min 0 W/m 14,6 km/h (3 Bft) 95,74 %
30.08.2017 21:38 20,1 C 17,8 C 17,2 C 91 % 15 lf 1006,5 hPa 0,2 l/m 0 min 2 min 0 W/m 20,9 km/h (4 Bft) 97,87 %
30.08.2017 21:40 20,0 C 17,8 C 17,2 C 91 % 15 lf 1006,5 hPa 0,0 l/m 0 min 2 min 0 W/m 10,5 km/h (2 Bft) 97,87 %
30.08.2017 21:42 19,9 C 17,8 C 17,2 C 91 % 15 lf 1006,7 hPa 0,0 l/m 0 min 2 min 0 W/m 10,5 km/h (2 Bft) 97,87 %
30.08.2017 21:44 19,9 C 17,8 C 17,2 C 91 % 15 lf 1006,7 hPa 0,0 l/m 0 min 0 min 0 W/m 10,5 km/h (2 Bft) 97,83 %
30.08.2017 21:46 19,8 C 17,8 C 17,2 C 91 % 15 lf 1006,7 hPa 0,0 l/m 0 min 0 min 0 W/m 14,6 km/h (3 Bft) 93,62 %
30.08.2017 21:48 19,7 C 17,8 C 17,2 C 92 % 15 lf 1006,6 hPa 0,0 l/m 0 min 0 min 0 W/m 12,6 km/h (3 Bft) 97,87 %
30.08.2017 21:50 19,7 C 17,8 C 17,2 C 92 % 15 lf 1006,7 hPa 0,0 l/m 0 min 0 min 0 W/m 12,6 km/h (3 Bft) 93,62 %
30.08.2017 21:52 19,6 C 17,8 C 17,2 C 92 % 15 lf 1006,7 hPa 0,0 l/m 0 min 0 min 0 W/m 14,6 km/h (3 Bft) 95,74 %
30.08.2017 21:54 19,6 C 17,8 C 17,2 C 92 % 15 lf 1006,7 hPa 0,0 l/m 0 min 0 min 0 W/m 16,7 km/h (3 Bft) 95,65 %
30.08.2017 21:56 19,5 C 17,8 C 17,2 C 92 % 15 lf 1006,8 hPa 0,0 l/m 0 min 0 min 0 W/m 10,5 km/h (2 Bft) 91,49 %
30.08.2017 21:58 19,4 C 17,8 C 17,2 C 93 % 15 lf 1006,8 hPa 0,0 l/m 0 min 0 min 0 W/m 10,5 km/h (2 Bft) 95,74 %
30.08.2017 22:00 19,4 C 17,8 C 17,2 C 93 % 15 lf 1006,8 hPa 0,0 l/m 0 min 0 min 0 W/m 12,6 km/h (3 Bft) 97,87 %
30.08.2017 22:02 19,3 C 17,8 C 17,2 C 93 % 15 lf 1006,9 hPa 0,0 l/m 0 min 0 min 0 W/m 8,4 km/h (2 Bft) 95,74 %
30.08.2017 22:04 19,3 C 17,8 C 17,2 C 93 % 15 lf 1007,0 hPa 0,0 l/m 0 min 0 min 0 W/m 8,4 km/h (2 Bft) 93,62 %
30.08.2017 22:06 19,3 C 17,8 C 17,2 C 93 % 15 lf 1007,0 hPa 0,0 l/m 0 min 0 min 0 W/m 8,4 km/h (2 Bft) 97,83 %
30.08.2017 22:08 19,2 C 17,8 C 17,2 C 93 % 15 lf 1007,0 hPa 0,0 l/m 0 min 0 min 0 W/m 4,2 km/h (1 Bft) 95,74 %
30.08.2017 22:10 19,2 C 17,8 C 17,2 C 93 % 15 lf 1007,0 hPa 0,0 l/m 0 min 0 min 0 W/m 8,4 km/h (2 Bft) 93,62 %
30.08.2017 22:12 19,2 C 17,8 C 17,2 C 93 % 15 lf 1007,0 hPa 0,0 l/m 0 min 0 min 0 W/m 4,2 km/h (1 Bft) 95,74 %
30.08.2017 22:14 19,2 C 17,8 C 17,2 C 93 % 15 lf 1007,1 hPa 0,0 l/m 0 min 0 min 0 W/m 8,4 km/h (2 Bft) 97,87 %
30.08.2017 22:16 19,1 C 17,8 C 17,2 C 94 % 15 lf 1007,1 hPa 0,0 l/m 0 min 0 min 0 W/m 8,4 km/h (2 Bft) 97,87 %
30.08.2017 22:18 19,1 C 17,8 C 17,2 C 94 % 15 lf 1007,1 hPa 0,0 l/m 0 min 0 min 0 W/m 8,4 km/h (2 Bft) 95,65 %
30.08.2017 22:20 19,1 C 17,8 C 16,7 C 94 % 15 lf 1007,2 hPa 0,0 l/m 0 min 0 min 0 W/m 10,5 km/h (2 Bft) 95,74 %
30.08.2017 22:22 19,0 C 17,8 C 16,7 C 94 % 15 lf 1007,2 hPa 0,0 l/m 0 min 0 min 0 W/m 6,3 km/h (2 Bft) 93,62 %
30.08.2017 22:24 19,0 C 17,2 C 16,7 C 94 % 15 lf 1007,2 hPa 0,0 l/m 0 min 0 min 0 W/m 12,6 km/h (3 Bft) 97,87 %
30.08.2017 22:26 18,9 C 17,2 C 16,7 C 94 % 15 lf 1007,2 hPa 0,0 l/m 0 min 0 min 0 W/m 6,3 km/h (2 Bft) 97,87 %
30.08.2017 22:28 18,9 C 17,2 C 16,7 C 94 % 15 lf 1007,1 hPa 0,0 l/m 0 min 0 min 0 W/m 8,4 km/h (2 Bft) 97,87 %
30.08.2017 22:30 18,9 C 17,2 C 16,7 C 94 % 15 lf 1007,1 hPa 0,0 l/m 0 min 0 min 0 W/m 8,4 km/h (2 Bft) 97,83 %
30.08.2017 22:32 18,9 C 17,2 C 16,7 C 94 % 15 lf 1007,1 hPa 0,0 l/m 0 min 0 min 0 W/m 8,4 km/h (2 Bft) 95,74 %
30.08.2017 22:34 18,8 C 17,2 C 17,2 C 94 % 15 lf 1007,2 hPa 0,0 l/m 0 min 0 min 0 W/m 8,4 km/h (2 Bft) 95,74 %
30.08.2017 22:36 18,8 C 17,8 C 17,2 C 94 % 15 lf 1007,2 hPa 0,0 l/m 0 min 0 min 0 W/m 6,3 km/h (2 Bft) 95,74 %
30.08.2017 22:38 18,8 C 17,2 C 17,2 C 94 % 15 lf 1007,2 hPa 0,0 l/m 0 min 0 min 0 W/m 14,6 km/h (3 Bft) 100,00 %
30.08.2017 22:40 18,8 C 17,2 C 16,7 C 94 % 15 lf 1007,2 hPa 0,0 l/m 0 min 0 min 0 W/m 12,6 km/h (3 Bft) 97,87 %
30.08.2017 22:42 18,7 C 17,2 C 16,7 C 94 % 15 lf 1007,2 hPa 0,0 l/m 0 min 0 min 0 W/m 10,5 km/h (2 Bft) 100,00 %
30.08.2017 22:44 18,7 C 17,2 C 16,7 C 94 % 15 lf 1007,2 hPa 0,0 l/m 0 min 0 min 1 W/m 16,7 km/h (3 Bft) 93,62 %
30.08.2017 22:46 18,7 C 17,2 C 16,7 C 94 % 15 lf 1007,2 hPa 0,0 l/m 0 min 0 min 3 W/m 8,4 km/h (2 Bft) 97,87 %
30.08.2017 22:48 18,7 C 17,2 C 16,7 C 94 % 15 lf 1007,2 hPa 0,0 l/m 0 min 0 min 1 W/m 8,4 km/h (2 Bft) 97,87 %
30.08.2017 22:50 18,7 C 17,2 C 16,7 C 94 % 15 lf 1007,3 hPa 0,0 l/m 0 min 0 min 5 W/m 8,4 km/h (2 Bft) 95,74 %
30.08.2017 22:52 18,6 C 17,2 C 16,7 C 94 % 15 lf 1007,3 hPa 0,0 l/m 0 min 0 min 5 W/m 8,4 km/h (2 Bft) 95,74 %
30.08.2017 22:54 18,6 C 17,2 C 16,7 C 95 % 15 lf 1007,2 hPa 0,0 l/m 0 min 0 min 5 W/m 4,2 km/h (1 Bft) 93,48 %
30.08.2017 22:56 18,6 C 17,2 C 16,7 C 94 % 15 lf 1007,3 hPa 0,0 l/m 0 min 0 min 0 W/m 10,5 km/h (2 Bft) 97,87 %
30.08.2017 22:58 18,6 C 17,2 C 16,7 C 94 % 15 lf 1007,3 hPa 0,0 l/m 0 min 0 min 5 W/m 6,3 km/h (2 Bft) 95,74 %
30.08.2017 23:00 18,6 C 17,2 C 16,7 C 95 % 15 lf 1007,4 hPa 0,0 l/m 0 min 0 min 5 W/m 8,4 km/h (2 Bft) 95,74 %
30.08.2017 23:02 18,5 C 17,2 C 16,7 C 95 % 15 lf 1007,4 hPa 0,0 l/m 0 min 0 min 5 W/m 12,6 km/h (3 Bft) 93,62 %
30.08.2017 23:04 18,5 C 17,2 C 16,7 C 95 % 15 lf 1007,4 hPa 0,0 l/m 0 min 0 min 5 W/m 10,5 km/h (2 Bft) 95,74 %
30.08.2017 23:06 18,5 C 17,2 C 16,7 C 95 % 15 lf 1007,3 hPa 0,0 l/m 0 min 0 min 0 W/m 10,5 km/h (2 Bft) 95,65 %
30.08.2017 23:08 18,4 C 17,2 C 16,7 C 95 % 15 lf 1007,3 hPa 0,0 l/m 0 min 0 min 0 W/m 12,6 km/h (3 Bft) 93,62 %
30.08.2017 23:10 18,4 C 17,2 C 16,7 C 95 % 15 lf 1007,2 hPa 0,0 l/m 0 min 0 min 0 W/m 12,6 km/h (3 Bft) 95,74 %
30.08.2017 23:12 18,4 C 17,2 C 16,7 C 95 % 15 lf 1007,2 hPa 0,0 l/m 0 min 0 min 0 W/m 8,4 km/h (2 Bft) 93,62 %
30.08.2017 23:14 18,4 C 17,2 C 16,7 C 95 % 15 lf 1007,3 hPa 0,0 l/m 0 min 0 min 0 W/m 10,5 km/h (2 Bft) 93,62 %
30.08.2017 23:16 18,4 C 17,2 C 16,7 C 95 % 15 lf 1007,4 hPa 0,0 l/m 0 min 0 min 4 W/m 10,5 km/h (2 Bft) 97,83 %
30.08.2017 23:18 18,4 C 17,2 C 16,7 C 95 % 15 lf 1007,3 hPa 0,0 l/m 0 min 0 min 4 W/m 10,5 km/h (2 Bft) 97,87 %
30.08.2017 23:20 18,4 C 17,2 C 16,7 C 95 % 15 lf 1007,3 hPa 0,0 l/m 0 min 0 min 0 W/m 10,5 km/h (2 Bft) 97,87 %
30.08.2017 23:22 18,4 C 17,2 C 16,7 C 95 % 15 lf 1007,3 hPa 0,0 l/m 0 min 0 min 0 W/m 6,3 km/h (2 Bft) 97,87 %
30.08.2017 23:24 18,4 C 17,2 C 16,7 C 95 % 15 lf 1007,5 hPa 0,0 l/m 0 min 0 min 0 W/m 8,4 km/h (2 Bft) 97,87 %
30.08.2017 23:26 18,4 C 17,2 C 16,7 C 95 % 15 lf 1007,4 hPa 0,0 l/m 0 min 0 min 0 W/m 8,4 km/h (2 Bft) 93,62 %
30.08.2017 23:28 18,4 C 17,2 C 16,7 C 96 % 15 lf 1007,4 hPa 0,0 l/m 0 min 0 min 0 W/m 12,6 km/h (3 Bft) 97,83 %
30.08.2017 23:30 18,4 C 17,2 C 16,7 C 96 % 15 lf 1007,7 hPa 0,0 l/m 0 min 0 min 0 W/m 12,6 km/h (3 Bft) 97,87 %
30.08.2017 23:32 18,4 C 17,2 C 16,7 C 96 % 15 lf 1007,7 hPa 0,0 l/m 0 min 0 min 0 W/m 6,3 km/h (2 Bft) 97,87 %
30.08.2017 23:34 18,4 C 17,2 C 16,7 C 96 % 15 lf 1007,6 hPa 0,0 l/m 0 min 0 min 0 W/m 8,4 km/h (2 Bft) 95,74 %
30.08.2017 23:36 18,4 C 17,2 C 16,7 C 96 % 15 lf 1007,6 hPa 0,0 l/m 0 min 0 min 0 W/m 8,4 km/h (2 Bft) 97,87 %
30.08.2017 23:38 18,4 C 17,2 C 16,7 C 96 % 15 lf 1007,4 hPa 0,0 l/m 0 min 0 min 0 W/m 16,7 km/h (3 Bft) 97,87 %
30.08.2017 23:40 18,3 C 17,2 C 16,7 C 96 % 15 lf 1007,4 hPa 0,0 l/m 0 min 0 min 0 W/m 8,4 km/h (2 Bft) 97,83 %
30.08.2017 23:42 18,3 C 17,2 C 16,7 C 96 % 15 lf 1007,3 hPa 0,0 l/m 0 min 0 min 0 W/m 6,3 km/h (2 Bft) 97,87 %
30.08.2017 23:44 18,3 C 17,2 C 16,7 C 96 % 15 lf 1007,2 hPa 0,0 l/m 0 min 0 min 0 W/m 6,3 km/h (2 Bft) 95,74 %
30.08.2017 23:46 18,3 C 17,2 C 16,7 C 96 % 15 lf 1007,2 hPa 0,0 l/m 0 min 0 min 0 W/m 8,4 km/h (2 Bft) 100,00 %
30.08.2017 23:48 18,3 C 17,2 C 16,7 C 96 % 15 lf 1007,3 hPa 0,0 l/m 0 min 0 min 0 W/m 4,2 km/h (1 Bft) 100,00 %
30.08.2017 23:50 18,3 C 17,2 C 16,7 C 96 % 15 lf 1007,3 hPa 0,0 l/m 0 min 0 min 0 W/m 6,3 km/h (2 Bft) 100,00 %
30.08.2017 23:52 18,3 C 17,2 C 16,7 C 96 % 15 lf 1007,4 hPa 0,0 l/m 0 min 0 min 0 W/m 6,3 km/h (2 Bft) 100,00 %
30.08.2017 23:54 18,3 C 17,2 C 16,7 C 96 % 15 lf 1007,5 hPa 0,0 l/m 0 min 0 min 0 W/m 10,5 km/h (2 Bft) 100,00 %
30.08.2017 23:56 18,3 C 17,8 C 16,7 C 96 % 15 lf 1007,4 hPa 0,0 l/m 0 min 0 min 0 W/m 10,5 km/h (2 Bft) 100,00 %
30.08.2017 23:58 18,3 C 17,2 C 16,7 C 96 % 15 lf 1007,4 hPa 0,0 l/m 0 min 0 min 0 W/m 10,5 km/h (2 Bft) 100,00 %
_ Min-Zeit 23:26 22:24 04:36 14:32 00:00 18:56 - - - - 08:50 07:52
Minimum _ 18,3 C 17,2 C 16,1 C 71 % 0 lf 1004,7 hPa - - - - 0,0 km/h (0 Bft) 87,23 %
_ Max-Zeit 15:48 12:16 14:18 23:28 09:40 00:10 21:26 12:10 10:26 14:12 20:30 00:00
Maximum _ 26,9 C 32,2 C 28,3 C 96 % 15 lf 1009,5 hPa 0,4 l/m 4 min 4 min 1002 W/m 39,7 km/h
N-NO (6 Bft)
100,00 %
Durchschnitt _ 21,9 C 22,0 C 20,7 C 83 % 3 lf 1006,8 hPa #2,8 l/m #4:34 h #1:56 h 267 W/m 10,5 km/h (2 Bft) 96,37 %
© 2017 W. Hausmann